IT9IJI-13 Weather Reports


Display with metric or nautical units.
time (UTC)temp
F
wind
direction
speed
MPH
gust
MPH
rain 1hr
in
rain 24hr
in
rain mn
in
humidity
%
barometer
mb
20260905022804 80 305 0.0 3.0 0.00 0.00 0.00 66 1018.0
20260905022703 80 305 0.0 3.0 0.00 0.00 0.00 66 1018.1
20260905022604 80 305 0.0 3.0 0.00 0.00 0.00 66 1018.0
20260905022503 80 297 0.0 1.0 0.00 0.00 0.00 66 1018.0
20260905022403 80 302 0.0 1.0 0.00 0.00 0.00 66 1018.0
20260905022306 80 302 0.0 1.0 0.00 0.00 0.00 66 1018.0
20260905022204 80 302 0.0 1.0 0.00 0.00 0.00 66 1018.1
20260905022103 80 292 0.0 2.0 0.00 0.00 0.00 66 1018.2
20260905022003 80 292 0.0 2.0 0.00 0.00 0.00 66 1018.2
20260905021903 80 292 0.0 2.0 0.00 0.00 0.00 66 1018.2
20260905021803 80 292 0.0 2.0 0.00 0.00 0.00 66 1018.1
20260905021703 80 292 0.0 2.0 0.00 0.00 0.00 66 1018.3
20260905021603 81 280 0.0 2.0 0.00 0.00 0.00 66 1018.3
20260905021503 81 279 0.0 2.0 0.00 0.00 0.00 66 1018.3
20260905021404 81 279 0.0 2.0 0.00 0.00 0.00 66 1018.3
20260905021303 81 279 0.0 2.0 0.00 0.00 0.00 66 1018.3
20260905021203 81 279 0.0 2.0 0.00 0.00 0.00 66 1018.3
20260905021103 81 270 0.0 2.0 0.00 0.00 0.00 66 1018.3
20260905021003 81 270 0.0 2.0 0.00 0.00 0.00 67 1018.2
20260905020903 81 270 0.0 2.0 0.00 0.00 0.00 67 1018.2
20260905020803 81 270 0.0 2.0 0.00 0.00 0.00 67 1018.2
20260905020703 81 270 0.0 2.0 0.00 0.00 0.00 67 1018.2
20260905020603 81 270 0.0 1.0 0.00 0.00 0.00 67 1018.3
20260905020503 81 0 0.0 0.0 0.00 0.00 0.00 67 1018.2
20260905020403 81 0 0.0 0.0 0.00 0.00 0.00 67 1018.2
20260905020303 81 0 0.0 0.0 0.00 0.00 0.00 67 1018.2
20260905020203 81 292 0.0 1.0 0.00 0.00 0.00 67 1018.3
20260905020103 81 292 0.0 1.0 0.00 0.00 0.00 67 1018.3
20260905020003 81 292 0.0 1.0 0.00 0.00 0.00 67 1018.3
20260905015903 81 292 0.0 1.0 0.00 0.00 0.00 67 1018.2
20260905015803 81 292 0.0 1.0 0.00 0.00 0.00 67 1018.2
20260905015703 81 292 0.0 1.0 0.00 0.00 0.00 68 1018.2
20260905015603 81 292 0.0 1.0 0.00 0.00 0.00 68 1018.2
20260905015503 81 292 0.0 1.0 0.00 0.00 0.00 68 1018.2
20260905015403 81 292 0.0 1.0 0.00 0.00 0.00 68 1018.2
20260905015306 81 292 0.0 1.0 0.00 0.00 0.00 68 1018.2
20260905015203 81 0 0.0 0.0 0.00 0.00 0.00 68 1018.3
20260905015103 81 0 0.0 0.0 0.00 0.00 0.00 68 1018.2
20260905015003 81 0 0.0 0.0 0.00 0.00 0.00 68 1018.2
20260905014903 81 0 0.0 0.0 0.00 0.00 0.00 68 1018.2
20260905014803 81 0 0.0 0.0 0.00 0.00 0.00 68 1018.1
20260905014703 81 0 0.0 0.0 0.00 0.00 0.00 68 1018.2
20260905014603 81 0 0.0 0.0 0.00 0.00 0.00 68 1018.2
20260905014503 81 0 0.0 0.0 0.00 0.00 0.00 68 1018.2
20260905014403 81 0 0.0 0.0 0.00 0.00 0.00 68 1018.2
20260905014303 81 0 0.0 0.0 0.00 0.00 0.00 68 1018.2
20260905014203 81 0 0.0 0.0 0.00 0.00 0.00 68 1018.1
20260905014103 81 0 0.0 0.0 0.00 0.00 0.00 68 1018.2
20260905014003 81 0 0.0 0.0 0.00 0.00 0.00 68 1018.2
20260905013903 81 0 0.0 0.0 0.00 0.00 0.00 68 1018.2
20260905013803 81 0 0.0 0.0 0.00 0.00 0.00 68 1018.2
20260905013703 81 0 0.0 0.0 0.00 0.00 0.00 68 1018.3
20260905013603 81 0 0.0 0.0 0.00 0.00 0.00 68 1018.2
20260905013503 81 0 0.0 0.0 0.00 0.00 0.00 68 1018.2
20260905013403 81 0 0.0 0.0 0.00 0.00 0.00 68 1018.2
20260905013303 81 0 0.0 0.0 0.00 0.00 0.00 69 1018.3
20260905013203 81 0 0.0 0.0 0.00 0.00 0.00 68 1018.3
20260905013103 81 0 0.0 0.0 0.00 0.00 0.00 68 1018.2
20260905013003 81 0 0.0 0.0 0.00 0.00 0.00 69 1018.2
20260905012903 81 0 0.0 0.0 0.00 0.00 0.00 68 1018.3
20260905012803 81 0 0.0 0.0 0.00 0.00 0.00 69 1018.3
20260905012703 81 0 0.0 0.0 0.00 0.00 0.00 69 1018.2
20260905012603 81 0 0.0 0.0 0.00 0.00 0.00 69 1018.2
20260905012503 81 0 0.0 0.0 0.00 0.00 0.00 69 1018.2
20260905012403 81 0 0.0 0.0 0.00 0.00 0.00 69 1018.2
20260905012306 81 0 0.0 0.0 0.00 0.00 0.00 68 1018.3
20260905012203 81 0 0.0 0.0 0.00 0.00 0.00 68 1018.2
20260905012103 81 0 0.0 0.0 0.00 0.00 0.00 68 1018.3
20260905012003 81 0 0.0 0.0 0.00 0.00 0.00 68 1018.3
20260905011904 81 0 0.0 0.0 0.00 0.00 0.00 68 1018.2
20260905011804 81 0 0.0 0.0 0.00 0.00 0.00 68 1018.2
20260905011704 81 0 0.0 0.0 0.00 0.00 0.00 68 1018.3
20260905011604 81 0 0.0 0.0 0.00 0.00 0.00 68 1018.3
20260905011504 81 0 0.0 0.0 0.00 0.00 0.00 68 1018.3
20260905011404 81 0 0.0 0.0 0.00 0.00 0.00 68 1018.3
20260905011304 81 71 0.0 2.0 0.00 0.00 0.00 68 1018.3
20260905011204 81 71 0.0 2.0 0.00 0.00 0.00 69 1018.3
20260905011104 81 71 0.0 2.0 0.00 0.00 0.00 69 1018.2
20260905011004 81 71 0.0 2.0 0.00 0.00 0.00 69 1018.2
20260905010904 81 71 0.0 2.0 0.00 0.00 0.00 69 1018.2
20260905010804 81 71 0.0 2.0 0.00 0.00 0.00 69 1018.2
20260905010704 81 71 0.0 2.0 0.00 0.00 0.00 69 1018.2
20260905010604 81 71 0.0 2.0 0.00 0.00 0.00 69 1018.2
20260905010504 81 11 0.0 2.0 0.00 0.00 0.00 69 1018.2
20260905010404 81 340 0.0 2.0 0.00 0.00 0.00 69 1018.1
20260905010304 81 306 0.0 2.0 0.00 0.00 0.00 69 1018.2
20260905010204 81 300 0.0 4.0 0.00 0.00 0.00 69 1018.2
20260905010104 81 298 0.0 4.0 0.00 0.00 0.00 69 1018.2
20260905010004 81 298 0.0 4.0 0.00 0.00 0.00 69 1018.2
20260905005904 81 298 0.0 4.0 0.00 0.00 0.00 69 1018.1
20260905005804 81 298 0.0 4.0 0.00 0.00 0.00 69 1018.1
20260905005704 81 298 0.0 4.0 0.00 0.00 0.00 69 1018.2
20260905005604 81 298 0.0 4.0 0.00 0.00 0.00 69 1018.1
20260905005504 81 295 0.0 4.0 0.00 0.00 0.00 70 1018.2
20260905005404 81 294 0.0 4.0 0.00 0.00 0.00 70 1018.0
20260905005306 81 294 0.0 4.0 0.00 0.00 0.00 70 1018.1
20260905005204 81 295 0.0 3.0 0.00 0.00 0.00 70 1018.2
20260905005104 81 295 0.0 3.0 0.00 0.00 0.00 70 1018.2
20260905005004 81 296 0.0 2.0 0.00 0.00 0.00 70 1018.2
20260905004904 81 296 0.0 2.0 0.00 0.00 0.00 70 1018.1
20260905004804 81 296 0.0 2.0 0.00 0.00 0.00 70 1018.2
20260905004704 81 296 0.0 2.0 0.00 0.00 0.00 70 1018.2
20260905004604 81 295 0.0 2.0 0.00 0.00 0.00 71 1018.2
20260905004504 81 295 0.0 2.0 0.00 0.00 0.00 70 1018.2
20260905004404 81 292 0.0 1.0 0.00 0.00 0.00 70 1018.1
20260905004304 81 292 0.0 1.0 0.00 0.00 0.00 71 1018.2
20260905004204 81 292 0.0 1.0 0.00 0.00 0.00 71 1018.1
20260905004104 81 292 0.0 1.0 0.00 0.00 0.00 71 1018.1
20260905004004 81 292 0.0 1.0 0.00 0.00 0.00 70 1018.2
20260905003904 81 292 0.0 1.0 0.00 0.00 0.00 70 1018.2
20260905003804 81 292 0.0 1.0 0.00 0.00 0.00 71 1018.1
20260905003704 81 292 0.0 1.0 0.00 0.00 0.00 70 1018.2
20260905003604 81 292 0.0 1.0 0.00 0.00 0.00 71 1018.2
20260905003504 81 292 0.0 1.0 0.00 0.00 0.00 71 1018.2
20260905003404 81 292 0.0 1.0 0.00 0.00 0.00 71 1018.2
20260905003304 81 292 0.0 1.0 0.00 0.00 0.00 71 1018.2
20260905003204 81 292 0.0 1.0 0.00 0.00 0.00 71 1018.3
20260905003103 81 292 0.0 1.0 0.00 0.00 0.00 70 1018.2
20260905003004 81 292 0.0 1.0 0.00 0.00 0.00 70 1018.2
20260905002904 81 292 0.0 1.0 0.00 0.00 0.00 70 1018.2
20260905002803 81 292 0.0 1.0 0.00 0.00 0.00 70 1018.2
20260905002703 81 292 0.0 1.0 0.00 0.00 0.00 70 1018.2
20260905002604 81 292 0.0 1.0 0.00 0.00 0.00 70 1018.2
20260905002503 81 292 0.0 1.0 0.00 0.00 0.00 70 1018.2
20260905002403 81 0 0.0 0.0 0.00 0.00 0.00 70 1018.1
20260905002306 81 0 0.0 0.0 0.00 0.00 0.00 70 1018.1
20260905002203 81 0 0.0 0.0 0.00 0.00 0.00 70 1018.1
20260905002104 81 0 0.0 0.0 0.00 0.00 0.00 70 1018.2
20260905002004 81 0 0.0 0.0 0.00 0.00 0.00 70 1018.2
20260905001903 81 0 0.0 0.0 0.00 0.00 0.00 70 1018.1
20260905001804 81 0 0.0 0.0 0.00 0.00 0.00 70 1018.2
20260905001703 81 0 0.0 0.0 0.00 0.00 0.00 70 1018.3
20260905001604 81 0 0.0 0.0 0.00 0.00 0.00 70 1018.2
20260905001503 81 0 0.0 0.0 0.00 0.00 0.00 70 1018.2
20260905001403 81 0 0.0 0.0 0.00 0.00 0.00 70 1018.2
20260905001304 81 0 0.0 0.0 0.00 0.00 0.00 70 1018.2
20260905001203 81 0 0.0 0.0 0.00 0.00 0.00 70 1018.2
20260905001103 81 0 0.0 0.0 0.00 0.00 0.00 70 1018.2
20260905001003 81 0 0.0 0.0 0.00 0.00 0.00 69 1018.3
20260905000903 81 0 0.0 0.0 0.00 0.00 0.00 70 1018.2
20260905000803 81 0 0.0 0.0 0.00 0.00 0.00 70 1018.2
20260905000703 81 0 0.0 0.0 0.00 0.00 0.00 70 1018.2
20260905000603 81 0 0.0 0.0 0.00 0.00 0.00 70 1018.2
20260905000503 81 0 0.0 0.0 0.00 0.00 0.00 70 1018.3
20260905000403 81 0 0.0 0.0 0.00 0.00 0.00 70 1018.2
20260905000303 81 0 0.0 0.0 0.00 0.00 0.00 70 1018.2
20260905000204 81 0 0.0 0.0 0.00 0.00 0.00 70 1018.2
20260905000103 81 0 0.0 0.0 0.00 0.00 0.00 70 1018.1
20260905000004 81 0 0.0 0.0 0.00 0.00 0.00 70 1018.1
20260904235903 81 0 0.0 0.0 0.00 0.00 0.00 70 1018.1
20260904235803 81 0 0.0 0.0 0.00 0.00 0.00 70 1018.2
20260904235703 81 0 0.0 0.0 0.00 0.00 0.00 70 1018.2
20260904235603 81 0 0.0 0.0 0.00 0.00 0.00 70 1018.2
20260904235503 81 0 0.0 0.0 0.00 0.00 0.00 70 1018.2
20260904235403 81 0 0.0 0.0 0.00 0.00 0.00 70 1018.2
20260904235306 81 0 0.0 0.0 0.00 0.00 0.00 70 1018.2
20260904235203 81 0 0.0 0.0 0.00 0.00 0.00 70 1018.2
20260904235103 81 0 0.0 0.0 0.00 0.00 0.00 70 1018.2
20260904235003 81 0 0.0 0.0 0.00 0.00 0.00 70 1018.2
20260904234903 81 0 0.0 0.0 0.00 0.00 0.00 70 1018.2
20260904234803 81 0 0.0 0.0 0.00 0.00 0.00 70 1018.2
20260904234703 81 0 0.0 0.0 0.00 0.00 0.00 70 1018.2
20260904234603 81 0 0.0 0.0 0.00 0.00 0.00 70 1018.3
20260904234503 81 0 0.0 0.0 0.00 0.00 0.00 70 1018.3
20260904234403 81 0 0.0 0.0 0.00 0.00 0.00 70 1018.3
20260904234303 81 0 0.0 0.0 0.00 0.00 0.00 70 1018.3
20260904234203 81 0 0.0 0.0 0.00 0.00 0.00 70 1018.3
20260904234103 81 0 0.0 0.0 0.00 0.00 0.00 70 1018.3
20260904234003 81 0 0.0 0.0 0.00 0.00 0.00 70 1018.3
20260904233903 81 0 0.0 0.0 0.00 0.00 0.00 70 1018.3
20260904233803 81 0 0.0 0.0 0.00 0.00 0.00 70 1018.3
20260904233703 81 0 0.0 0.0 0.00 0.00 0.00 70 1018.3
20260904233603 81 0 0.0 0.0 0.00 0.00 0.00 70 1018.5
20260904233503 81 0 0.0 0.0 0.00 0.00 0.00 70 1018.4
20260904233403 81 292 0.0 2.0 0.00 0.00 0.00 70 1018.3
20260904233303 81 292 0.0 2.0 0.00 0.00 0.00 70 1018.4
20260904233203 81 292 0.0 2.0 0.00 0.00 0.00 70 1018.4
20260904233103 81 292 0.0 2.0 0.00 0.00 0.00 70 1018.4
20260904233003 81 292 0.0 2.0 0.00 0.00 0.00 70 1018.4
20260904232903 81 292 0.0 2.0 0.00 0.00 0.00 70 1018.4
20260904232803 81 292 0.0 2.0 0.00 0.00 0.00 70 1018.5
20260904232703 81 292 0.0 2.0 0.00 0.00 0.00 70 1018.4
20260904232603 81 292 0.0 2.0 0.00 0.00 0.00 70 1018.4
20260904232503 82 292 0.0 2.0 0.00 0.00 0.00 70 1018.3
20260904232403 81 292 0.0 1.0 0.00 0.00 0.00 70 1018.2
20260904232306 81 0 0.0 0.0 0.00 0.00 0.00 70 1018.3
20260904232203 81 0 0.0 0.0 0.00 0.00 0.00 70 1018.3
20260904232103 81 0 0.0 0.0 0.00 0.00 0.00 70 1018.2
20260904232003 82 0 0.0 0.0 0.00 0.00 0.00 70 1018.3
20260904231903 82 0 0.0 0.0 0.00 0.00 0.00 70 1018.2
20260904231803 81 297 0.0 2.0 0.00 0.00 0.00 71 1018.2
20260904231703 81 297 0.0 2.0 0.00 0.00 0.00 71 1018.3
20260904231603 81 297 0.0 2.0 0.00 0.00 0.00 71 1018.2
20260904231503 81 297 0.0 2.0 0.00 0.00 0.00 71 1018.3
20260904231403 81 297 0.0 2.0 0.00 0.00 0.00 71 1018.3
20260904231303 81 297 0.0 2.0 0.00 0.00 0.00 70 1018.4
20260904231203 81 297 1.0 2.0 0.00 0.00 0.00 71 1018.3
20260904231004 81 298 1.0 4.0 0.00 0.00 0.00 71 1018.3
20260904230904 81 298 1.0 4.0 0.00 0.00 0.00 71 1018.3
20260904230804 81 297 1.0 4.0 0.00 0.00 0.00 71 1018.3
20260904230704 81 297 1.0 4.0 0.00 0.00 0.00 71 1018.4
20260904230604 81 297 1.0 4.0 0.00 0.00 0.00 71 1018.3
20260904230504 81 297 1.0 3.0 0.00 0.00 0.00 71 1018.4
20260904230404 81 297 1.0 3.0 0.00 0.00 0.00 71 1018.4
20260904230304 81 297 1.0 4.0 0.00 0.00 0.00 70 1018.4
20260904230204 81 294 1.0 4.0 0.00 0.00 0.00 70 1018.4
20260904230104 81 294 1.0 5.0 0.00 0.00 0.00 71 1018.5
20260904230004 81 296 1.0 5.0 0.00 0.00 0.00 70 1018.5
20260904225904 81 297 1.0 5.0 0.00 0.00 0.00 70 1018.5
20260904225804 81 296 1.0 5.0 0.00 0.00 0.00 70 1018.5
20260904225704 81 297 1.0 5.0 0.00 0.00 0.00 70 1018.4
20260904225604 81 297 1.0 5.0 0.00 0.00 0.00 70 1018.5
20260904225504 81 297 1.0 5.0 0.00 0.00 0.00 70 1018.4
20260904225404 81 297 1.0 5.0 0.00 0.00 0.00 70 1018.6
20260904225305 82 296 1.0 5.0 0.00 0.00 0.00 70 1018.6
20260904225204 82 298 1.0 5.0 0.00 0.00 0.00 70 1018.6
20260904225104 82 300 0.0 5.0 0.00 0.00 0.00 70 1018.6
20260904225004 82 295 0.0 5.0 0.00 0.00 0.00 70 1018.5
20260904224904 82 292 0.0 5.0 0.00 0.00 0.00 70 1018.5
20260904224804 82 292 0.0 1.0 0.00 0.00 0.00 70 1018.5
20260904224704 82 292 0.0 1.0 0.00 0.00 0.00 70 1018.5
20260904224604 82 292 0.0 2.0 0.00 0.00 0.00 70 1018.5
20260904224504 82 292 0.0 2.0 0.00 0.00 0.00 70 1018.5
20260904224404 82 292 1.0 2.0 0.00 0.00 0.00 70 1018.5
20260904224304 82 292 1.0 3.0 0.00 0.00 0.00 70 1018.7
20260904224204 82 292 1.0 3.0 0.00 0.00 0.00 70 1018.6
20260904224104 82 294 1.0 3.0 0.00 0.00 0.00 70 1018.8
20260904224004 82 294 1.0 3.0 0.00 0.00 0.00 70 1018.7
20260904223903 82 294 1.0 3.0 0.00 0.00 0.00 70 1018.7
20260904223804 82 294 1.0 3.0 0.00 0.00 0.00 70 1018.6
20260904223704 82 294 1.0 3.0 0.00 0.00 0.00 70 1018.8
20260904223604 82 296 1.0 3.0 0.00 0.00 0.00 70 1018.8
20260904223504 82 297 1.0 4.0 0.00 0.00 0.00 70 1018.9
20260904223404 82 298 1.0 4.0 0.00 0.00 0.00 69 1018.9
20260904223304 82 299 0.0 4.0 0.00 0.00 0.00 70 1018.7
20260904223204 82 299 0.0 4.0 0.00 0.00 0.00 69 1018.6
20260904223103 82 294 1.0 6.0 0.00 0.00 0.00 69 1018.8
20260904223003 82 299 1.0 6.0 0.00 0.00 0.00 69 1018.8
20260904222905 82 300 1.0 6.0 0.00 0.00 0.00 69 1018.7
20260904222803 82 299 1.0 6.0 0.00 0.00 0.00 69 1018.8
20260904222703 82 298 1.0 6.0 0.00 0.00 0.00 69 1018.8
20260904222603 82 297 1.0 6.0 0.00 0.00 0.00 69 1018.8
20260904222503 82 297 1.0 6.0 0.00 0.00 0.00 69 1018.8
20260904222403 82 297 1.0 6.0 0.00 0.00 0.00 69 1018.8
20260904222306 82 297 1.0 6.0 0.00 0.00 0.00 69 1018.8
20260904222203 82 297 2.0 6.0 0.00 0.00 0.00 69 1018.8
20260904222103 82 299 2.0 6.0 0.00 0.00 0.00 69 1018.8
20260904222003 82 296 2.0 5.0 0.00 0.00 0.00 69 1018.8
20260904221903 82 296 2.0 5.0 0.00 0.00 0.00 69 1018.8
20260904221803 82 297 1.0 5.0 0.00 0.00 0.00 69 1019.0
20260904221703 82 298 1.0 5.0 0.00 0.00 0.00 69 1018.9
20260904221603 82 300 1.0 5.0 0.00 0.00 0.00 69 1018.9
20260904221503 82 299 1.0 5.0 0.00 0.00 0.00 69 1018.9
20260904221404 82 300 1.0 5.0 0.00 0.00 0.00 69 1018.9
20260904221304 82 301 1.0 5.0 0.00 0.00 0.00 69 1018.8
20260904221203 82 302 1.0 5.0 0.00 0.00 0.00 69 1018.9
20260904221103 82 303 1.0 4.0 0.00 0.00 0.00 69 1018.8
20260904221003 82 305 0.0 4.0 0.00 0.00 0.00 69 1018.8
20260904220903 82 306 0.0 4.0 0.00 0.00 0.00 69 1018.9
20260904220803 82 303 0.0 4.0 0.00 0.00 0.00 69 1018.9
20260904220703 82 295 0.0 4.0 0.00 0.00 0.00 69 1018.9
20260904220603 82 293 0.0 3.0 0.00 0.00 0.00 69 1018.9
20260904220503 82 293 0.0 3.0 0.00 0.00 0.00 69 1019.0
20260904220403 82 292 0.0 3.0 0.00 0.00 0.00 68 1018.9
20260904220303 82 292 0.0 3.0 0.00 0.00 0.00 68 1018.9
20260904220203 82 292 1.0 3.0 0.00 0.00 0.00 68 1018.8
20260904220112 82 293 1.0 3.0 0.00 0.00 0.00 68 1018.8
20260904215903 82 293 1.0 4.0 0.00 0.00 0.00 68 1018.8
20260904215803 82 295 1.0 4.0 0.00 0.00 0.00 68 1018.9
20260904215703 82 297 1.0 4.0 0.00 0.00 0.00 68 1018.8
20260904215603 82 299 1.0 4.0 0.00 0.00 0.00 68 1019.0
20260904215503 82 301 1.0 4.0 0.00 0.00 0.00 68 1018.9
20260904215403 82 302 1.0 4.0 0.00 0.00 0.00 68 1018.9
20260904215305 82 301 1.0 4.0 0.00 0.00 0.00 68 1018.8
20260904215203 82 301 1.0 5.0 0.00 0.00 0.00 68 1018.8
20260904215103 82 302 1.0 5.0 0.00 0.00 0.00 68 1018.7
20260904215003 82 301 1.0 5.0 0.00 0.00 0.00 68 1018.7
20260904214903 82 302 1.0 5.0 0.00 0.00 0.00 68 1018.8
20260904214803 82 303 1.0 5.0 0.00 0.00 0.00 68 1018.8
20260904214703 82 301 1.0 5.0 0.00 0.00 0.00 68 1018.7
20260904214603 82 301 1.0 6.0 0.00 0.00 0.00 68 1018.7
20260904214503 82 299 1.0 6.0 0.00 0.00 0.00 67 1018.8
20260904214403 82 297 2.0 6.0 0.00 0.00 0.00 68 1018.9
20260904214303 82 298 2.0 6.0 0.00 0.00 0.00 67 1018.8
20260904214203 82 297 2.0 6.0 0.00 0.00 0.00 68 1018.9
20260904214103 82 297 2.0 6.0 0.00 0.00 0.00 68 1018.8
20260904214003 82 298 2.0 6.0 0.00 0.00 0.00 68 1018.8
20260904213903 82 299 2.0 6.0 0.00 0.00 0.00 68 1018.8
20260904213803 82 297 2.0 6.0 0.00 0.00 0.00 68 1018.7
20260904213703 82 296 2.0 7.0 0.00 0.00 0.00 68 1018.7
20260904213603 82 293 2.0 7.0 0.00 0.00 0.00 68 1018.8
20260904213503 82 292 2.0 7.0 0.00 0.00 0.00 68 1018.9
20260904213403 82 294 2.0 7.0 0.00 0.00 0.00 68 1018.8
20260904213303 82 295 2.0 7.0 0.00 0.00 0.00 68 1018.8
20260904213203 82 295 2.0 7.0 0.00 0.00 0.00 68 1018.8
20260904213103 82 295 2.0 7.0 0.00 0.00 0.00 68 1018.9
20260904213003 82 295 2.0 7.0 0.00 0.00 0.00 68 1018.9
20260904212903 82 294 2.0 7.0 0.00 0.00 0.00 68 1018.7
20260904212803 82 294 1.0 7.0 0.00 0.00 0.00 68 1018.8
20260904212703 82 297 1.0 7.0 0.00 0.00 0.00 68 1018.7
20260904212603 82 298 1.0 7.0 0.00 0.00 0.00 68 1018.7
20260904212503 82 300 1.0 7.0 0.00 0.00 0.00 68 1018.8
20260904212403 82 301 0.0 7.0 0.00 0.00 0.00 68 1018.8
20260904212306 82 302 0.0 2.0 0.00 0.00 0.00 68 1018.7
20260904212203 82 302 0.0 2.0 0.00 0.00 0.00 68 1018.8
20260904212103 82 298 0.0 2.0 0.00 0.00 0.00 68 1018.8
20260904212003 82 294 0.0 2.0 0.00 0.00 0.00 69 1018.7
20260904211903 82 281 0.0 2.0 0.00 0.00 0.00 69 1018.7
20260904211803 82 286 0.0 2.0 0.00 0.00 0.00 69 1018.7
20260904211703 82 286 0.0 2.0 0.00 0.00 0.00 69 1018.7
20260904211603 82 290 0.0 2.0 0.00 0.00 0.00 69 1018.7
20260904211503 82 290 0.0 2.0 0.00 0.00 0.00 69 1018.7
20260904211403 82 290 0.0 2.0 0.00 0.00 0.00 69 1018.6
20260904211303 82 291 0.0 3.0 0.00 0.00 0.00 69 1018.6
20260904211203 82 291 0.0 3.0 0.00 0.00 0.00 69 1018.6
20260904211103 82 292 0.0 3.0 0.00 0.00 0.00 69 1018.7
20260904211003 82 292 1.0 4.0 0.00 0.00 0.00 69 1018.7
20260904210903 82 292 1.0 4.0 0.00 0.00 0.00 69 1018.6
20260904210803 82 292 1.0 4.0 0.00 0.00 0.00 69 1018.7
20260904210703 82 292 1.0 4.0 0.00 0.00 0.00 69 1018.7
20260904210603 82 292 1.0 4.0 0.00 0.00 0.00 69 1018.6
20260904210503 82 292 1.0 4.0 0.00 0.00 0.00 69 1018.7
20260904210403 82 292 1.0 4.0 0.00 0.00 0.00 69 1018.7
20260904210303 82 293 1.0 4.0 0.00 0.00 0.00 68 1018.7
20260904210203 82 293 1.0 4.0 0.00 0.00 0.00 68 1018.6
20260904210003 82 293 1.0 4.0 0.00 0.00 0.00 68 1018.6
20260904205903 82 295 0.0 3.0 0.00 0.00 0.00 68 1018.6
20260904205804 82 295 0.0 3.0 0.00 0.00 0.00 68 1018.7
20260904205704 82 300 0.0 4.0 0.00 0.00 0.00 68 1018.7
20260904205604 82 300 0.0 4.0 0.00 0.00 0.00 68 1018.7
20260904205504 82 300 1.0 4.0 0.00 0.00 0.00 68 1018.8
20260904205404 82 299 1.0 5.0 0.00 0.00 0.00 68 1018.7
20260904205305 82 302 1.0 5.0 0.00 0.00 0.00 68 1018.8
20260904205204 82 302 1.0 5.0 0.00 0.00 0.00 68 1018.7
20260904205104 82 301 1.0 5.0 0.00 0.00 0.00 68 1018.7
20260904205004 82 300 2.0 5.0 0.00 0.00 0.00 68 1018.7
20260904204904 82 302 2.0 6.0 0.00 0.00 0.00 68 1018.8
20260904204804 82 302 2.0 6.0 0.00 0.00 0.00 68 1018.8
20260904204704 82 302 2.0 6.0 0.00 0.00 0.00 68 1018.7
20260904204604 82 302 2.0 6.0 0.00 0.00 0.00 68 1018.8
20260904204504 82 303 1.0 6.0 0.00 0.00 0.00 68 1018.7
20260904204404 82 304 1.0 6.0 0.00 0.00 0.00 69 1018.8
20260904204304 82 304 1.0 6.0 0.00 0.00 0.00 69 1018.8
20260904204204 83 307 1.0 6.0 0.00 0.00 0.00 68 1018.7
20260904204104 83 308 1.0 6.0 0.00 0.00 0.00 68 1018.7
20260904204004 83 312 1.0 6.0 0.00 0.00 0.00 68 1018.7
20260904203904 82 312 0.0 5.0 0.00 0.00 0.00 68 1018.8
20260904203804 82 315 0.0 2.0 0.00 0.00 0.00 68 1018.7
20260904203704 83 315 0.0 2.0 0.00 0.00 0.00 68 1018.8
20260904203604 83 315 0.0 2.0 0.00 0.00 0.00 68 1018.8
20260904203504 83 315 0.0 2.0 0.00 0.00 0.00 68 1018.9
20260904203404 83 300 1.0 5.0 0.00 0.00 0.00 68 1018.9
20260904203304 83 295 1.0 5.0 0.00 0.00 0.00 68 1018.8
20260904203204 83 292 1.0 5.0 0.00 0.00 0.00 68 1018.9
20260904203104 83 292 1.0 5.0 0.00 0.00 0.00 68 1018.9
20260904203004 83 292 1.0 5.0 0.00 0.00 0.00 68 1018.9
20260904202904 83 292 1.0 5.0 0.00 0.00 0.00 68 1018.9
20260904202804 83 292 1.0 5.0 0.00 0.00 0.00 68 1018.9
20260904202704 83 292 1.0 5.0 0.00 0.00 0.00 68 1018.9
20260904202604 83 292 1.0 5.0 0.00 0.00 0.00 68 1018.8
20260904202504 83 292 1.0 5.0 0.00 0.00 0.00 68 1018.9
20260904202404 83 292 1.0 4.0 0.00 0.00 0.00 68 1018.8
20260904202306 83 292 0.0 3.0 0.00 0.00 0.00 68 1018.9
20260904202204 83 292 0.0 3.0 0.00 0.00 0.00 68 1018.8
20260904202104 83 294 0.0 3.0 0.00 0.00 0.00 68 1018.9
20260904202004 83 303 0.0 4.0 0.00 0.00 0.00 68 1018.9
20260904201903 83 301 1.0 4.0 0.00 0.00 0.00 68 1018.9
20260904201804 83 297 1.0 4.0 0.00 0.00 0.00 68 1018.8
20260904201703 83 295 1.0 6.0 0.00 0.00 0.00 68 1018.8
20260904201604 83 295 2.0 6.0 0.00 0.00 0.00 68 1018.8
20260904201503 83 295 2.0 6.0 0.00 0.00 0.00 68 1018.9
20260904201403 83 295 2.0 6.0 0.00 0.00 0.00 68 1018.8
20260904201304 83 295 2.0 6.0 0.00 0.00 0.00 68 1018.9
20260904201204 83 294 2.0 6.0 0.00 0.00 0.00 68 1018.8
20260904201104 83 294 2.0 6.0 0.00 0.00 0.00 68 1018.9
20260904201003 83 292 2.0 6.0 0.00 0.00 0.00 69 1018.9
20260904200903 83 294 2.0 6.0 0.00 0.00 0.00 69 1018.9
20260904200803 83 295 2.0 7.0 0.00 0.00 0.00 69 1018.9
20260904200703 83 296 2.0 7.0 0.00 0.00 0.00 70 1019.0
20260904200603 83 297 1.0 7.0 0.00 0.00 0.00 70 1019.0
20260904200503 83 298 1.0 7.0 0.00 0.00 0.00 70 1019.0
20260904200403 83 298 1.0 7.0 0.00 0.00 0.00 70 1019.0
20260904200303 83 298 2.0 7.0 0.00 0.00 0.00 70 1019.1
20260904200203 83 300 2.0 7.0 0.00 0.00 0.00 70 1019.0
20260904200103 83 300 2.0 7.0 0.00 0.00 0.00 70 1019.0
20260904200004 83 300 2.0 7.0 0.00 0.00 0.00 70 1019.1
20260904195903 83 299 1.0 7.0 0.00 0.00 0.00 70 1019.0
20260904195803 83 299 1.0 6.0 0.00 0.00 0.00 70 1019.0
20260904195703 83 298 1.0 5.0 0.00 0.00 0.00 70 1019.1
20260904195603 83 298 1.0 4.0 0.00 0.00 0.00 70 1019.0
20260904195503 83 299 1.0 4.0 0.00 0.00 0.00 70 1019.1
20260904195403 83 300 1.0 4.0 0.00 0.00 0.00 70 1019.0
20260904195306 83 297 1.0 4.0 0.00 0.00 0.00 70 1019.0
20260904195203 83 295 1.0 4.0 0.00 0.00 0.00 70 1019.0
20260904195103 83 296 1.0 4.0 0.00 0.00 0.00 70 1019.1
20260904195003 83 297 1.0 4.0 0.00 0.00 0.00 69 1019.1
20260904194903 83 297 1.0 4.0 0.00 0.00 0.00 69 1019.0
20260904194803 83 298 1.0 4.0 0.00 0.00 0.00 69 1019.0
20260904194703 83 299 1.0 4.0 0.00 0.00 0.00 69 1019.1
20260904194603 83 299 1.0 4.0 0.00 0.00 0.00 69 1019.1
20260904194503 83 298 1.0 4.0 0.00 0.00 0.00 69 1019.0
20260904194403 83 296 1.0 4.0 0.00 0.00 0.00 69 1019.1
20260904194303 83 298 0.0 4.0 0.00 0.00 0.00 69 1019.1
20260904194203 83 300 1.0 4.0 0.00 0.00 0.00 69 1019.1
20260904194103 83 301 1.0 4.0 0.00 0.00 0.00 69 1019.1
20260904194003 83 301 1.0 4.0 0.00 0.00 0.00 69 1019.0
20260904193903 83 301 1.0 4.0 0.00 0.00 0.00 69 1019.0
20260904193803 83 301 1.0 4.0 0.00 0.00 0.00 69 1019.0
20260904193703 83 299 1.0 5.0 0.00 0.00 0.00 69 1019.0
20260904193603 83 300 1.0 6.0 0.00 0.00 0.00 69 1019.0
20260904193503 83 299 1.0 6.0 0.00 0.00 0.00 69 1019.1
20260904193403 83 298 1.0 6.0 0.00 0.00 0.00 69 1019.0
20260904193303 83 298 1.0 6.0 0.00 0.00 0.00 69 1019.0
20260904193203 83 296 2.0 6.0 0.00 0.00 0.00 69 1019.0
20260904193103 83 295 2.0 6.0 0.00 0.00 0.00 68 1019.0
20260904193003 83 294 2.0 6.0 0.00 0.00 0.00 68 1018.9
20260904192903 83 294 2.0 6.0 0.00 0.00 0.00 68 1018.9
20260904192803 83 294 2.0 6.0 0.00 0.00 0.00 68 1019.0
20260904192703 83 294 2.0 6.0 0.00 0.00 0.00 68 1019.0
20260904192603 83 293 2.0 5.0 0.00 0.00 0.00 68 1019.0
20260904192503 83 293 2.0 5.0 0.00 0.00 0.00 68 1019.0
20260904192403 83 293 2.0 5.0 0.00 0.00 0.00 68 1019.0
20260904192306 83 293 1.0 5.0 0.00 0.00 0.00 68 1019.0
20260904192203 83 293 1.0 5.0 0.00 0.00 0.00 69 1019.0
20260904192103 83 294 1.0 5.0 0.00 0.00 0.00 69 1019.0
20260904192003 83 293 1.0 5.0 0.00 0.00 0.00 69 1018.9
20260904191903 83 293 1.0 2.0 0.00 0.00 0.00 69 1019.0
20260904191803 83 292 1.0 4.0 0.00 0.00 0.00 69 1019.0
20260904191703 83 293 1.0 4.0 0.00 0.00 0.00 69 1019.0
20260904191603 83 293 1.0 4.0 0.00 0.00 0.00 69 1018.9
20260904191503 83 293 1.0 4.0 0.00 0.00 0.00 69 1019.0
20260904191403 83 293 1.0 4.0 0.00 0.00 0.00 69 1018.9
20260904191303 83 293 1.0 4.0 0.00 0.00 0.00 69 1018.9
20260904191203 83 294 1.0 4.0 0.00 0.00 0.00 69 1018.9
20260904191103 83 295 1.0 4.0 0.00 0.00 0.00 69 1018.9
20260904191003 83 298 2.0 7.0 0.00 0.00 0.00 69 1018.9
20260904190903 83 298 2.0 7.0 0.00 0.00 0.00 69 1018.9
20260904190803 83 298 2.0 7.0 0.00 0.00 0.00 69 1018.9
20260904190703 83 297 2.0 7.0 0.00 0.00 0.00 69 1018.8
20260904190603 83 297 2.0 7.0 0.00 0.00 0.00 69 1018.9
20260904190503 83 297 2.0 7.0 0.00 0.00 0.00 69 1018.9
20260904190403 83 297 2.0 7.0 0.00 0.00 0.00 69 1018.8
20260904190303 83 298 2.0 7.0 0.00 0.00 0.00 69 1018.8
20260904190203 83 296 2.0 7.0 0.00 0.00 0.00 69 1018.8
20260904190003 83 296 2.0 6.0 0.00 0.00 0.00 69 1018.7
20260904185903 83 296 2.0 6.0 0.00 0.00 0.00 69 1018.7
20260904185803 83 298 2.0 6.0 0.00 0.00 0.00 70 1018.7
20260904185703 83 299 2.0 6.0 0.00 0.00 0.00 70 1018.9
20260904185603 83 300 2.0 6.0 0.00 0.00 0.00 70 1018.8
20260904185503 83 300 2.0 6.0 0.00 0.00 0.00 70 1018.9
20260904185403 83 298 2.0 6.0 0.00 0.00 0.00 70 1019.0
20260904185306 83 298 3.0 6.0 0.00 0.00 0.00 70 1019.0
20260904185203 83 299 3.0 7.0 0.00 0.00 0.00 70 1018.9
20260904185103 83 299 3.0 7.0 0.00 0.00 0.00 70 1019.0
20260904185003 83 298 3.0 7.0 0.00 0.00 0.00 70 1018.9
20260904184903 83 298 3.0 7.0 0.00 0.00 0.00 70 1018.9
20260904184803 83 296 3.0 7.0 0.00 0.00 0.00 71 1018.9
20260904184703 83 295 3.0 7.0 0.00 0.00 0.00 71 1018.9
20260904184603 83 296 3.0 7.0 0.00 0.00 0.00 71 1018.8
20260904184503 83 295 3.0 7.0 0.00 0.00 0.00 71 1018.8
20260904184403 83 298 3.0 7.0 0.00 0.00 0.00 70 1018.9
20260904184303 83 298 3.0 7.0 0.00 0.00 0.00 71 1018.8
20260904184203 83 297 2.0 6.0 0.00 0.00 0.00 71 1018.8
20260904184104 83 297 2.0 6.0 0.00 0.00 0.00 71 1018.7
20260904184004 83 297 3.0 6.0 0.00 0.00 0.00 71 1018.7
20260904183905 83 297 3.0 6.0 0.00 0.00 0.00 71 1018.8
20260904183804 83 298 3.0 7.0 0.00 0.00 0.00 71 1018.7
20260904183704 83 299 3.0 7.0 0.00 0.00 0.00 71 1018.7
20260904183604 83 300 4.0 7.0 0.00 0.00 0.00 71 1018.7
20260904183504 83 302 3.0 7.0 0.00 0.00 0.00 71 1018.7
20260904183404 83 300 4.0 7.0 0.00 0.00 0.00 71 1018.7
20260904183304 83 300 4.0 7.0 0.00 0.00 0.00 71 1018.7
20260904183204 83 300 4.0 8.0 0.00 0.00 0.00 71 1018.7
20260904183104 83 301 4.0 8.0 0.00 0.00 0.00 71 1018.6
20260904183004 83 300 4.0 8.0 0.00 0.00 0.00 71 1018.7
20260904182904 83 301 4.0 8.0 0.00 0.00 0.00 71 1018.6
20260904182804 83 301 4.0 8.0 0.00 0.00 0.00 71 1018.6
20260904182704 83 302 4.0 8.0 0.00 0.00 0.00 71 1018.6
20260904182604 83 300 4.0 8.0 0.00 0.00 0.00 71 1018.6
20260904182504 83 299 4.0 8.0 0.00 0.00 0.00 71 1018.5
20260904182404 83 300 4.0 9.0 0.00 0.00 0.00 71 1018.5
20260904182306 83 300 4.0 9.0 0.00 0.00 0.00 71 1018.5
20260904182204 83 299 4.0 9.0 0.00 0.00 0.00 71 1018.4
20260904182104 83 298 4.0 9.0 0.00 0.00 0.00 71 1018.5
20260904182004 83 298 4.0 9.0 0.00 0.00 0.00 71 1018.4
20260904181904 83 297 4.0 9.0 0.00 0.00 0.00 70 1018.5
20260904181804 83 296 4.0 9.0 0.00 0.00 0.00 70 1018.5
20260904181704 83 295 4.0 9.0 0.00 0.00 0.00 71 1018.5
20260904181604 83 295 4.0 9.0 0.00 0.00 0.00 70 1018.5
20260904181504 83 295 4.0 9.0 0.00 0.00 0.00 71 1018.6
20260904181404 83 294 4.0 9.0 0.00 0.00 0.00 71 1018.5
20260904181304 83 293 4.0 9.0 0.00 0.00 0.00 70 1018.4
20260904181204 83 293 4.0 9.0 0.00 0.00 0.00 70 1018.4
20260904181104 83 294 4.0 9.0 0.00 0.00 0.00 70 1018.3
20260904181004 83 294 4.0 9.0 0.00 0.00 0.00 70 1018.3
20260904180903 83 295 4.0 9.0 0.00 0.00 0.00 70 1018.3
20260904180804 83 295 4.0 9.0 0.00 0.00 0.00 70 1018.3
20260904180704 83 296 4.0 9.0 0.00 0.00 0.00 70 1018.2
20260904180604 83 296 4.0 9.0 0.00 0.00 0.00 70 1018.2
20260904180504 83 295 4.0 9.0 0.00 0.00 0.00 70 1018.1
20260904180404 83 296 4.0 8.0 0.00 0.00 0.00 70 1018.2
20260904180303 83 297 3.0 8.0 0.00 0.00 0.00 70 1018.2
20260904180204 83 299 3.0 8.0 0.00 0.00 0.00 70 1018.2
20260904180104 83 298 3.0 8.0 0.00 0.00 0.00 70 1018.2
20260904180004 83 297 3.0 8.0 0.00 0.00 0.00 70 1018.2
20260904175903 83 298 3.0 8.0 0.00 0.00 0.00 70 1018.2
20260904175803 83 297 3.0 8.0 0.00 0.00 0.00 70 1018.1
20260904175703 83 296 3.0 8.0 0.00 0.00 0.00 70 1018.1
20260904175603 83 297 4.0 8.0 0.00 0.00 0.00 70 1018.0
20260904175503 83 300 4.0 8.0 0.00 0.00 0.00 70 1017.9
20260904175403 83 300 4.0 8.0 0.00 0.00 0.00 70 1018.0
20260904175305 83 300 4.0 8.0 0.00 0.00 0.00 70 1017.9
20260904175203 83 298 4.0 8.0 0.00 0.00 0.00 70 1017.9
20260904175103 83 298 4.0 8.0 0.00 0.00 0.00 70 1017.8
20260904175003 84 300 4.0 8.0 0.00 0.00 0.00 70 1017.9
20260904174903 84 301 4.0 7.0 0.00 0.00 0.00 70 1018.0
20260904174804 84 302 4.0 7.0 0.00 0.00 0.00 69 1018.0
20260904174703 84 303 4.0 9.0 0.00 0.00 0.00 69 1018.0
20260904174603 84 302 3.0 9.0 0.00 0.00 0.00 69 1018.0
20260904174503 84 300 3.0 9.0 0.00 0.00 0.00 69 1018.1
20260904174403 84 300 3.0 9.0 0.00 0.00 0.00 69 1018.0
20260904174303 84 299 3.0 9.0 0.00 0.00 0.00 69 1018.0
20260904174203 84 299 4.0 9.0 0.00 0.00 0.00 69 1018.0
20260904174103 84 301 4.0 9.0 0.00 0.00 0.00 69 1017.9
20260904174003 84 300 4.0 9.0 0.00 0.00 0.00 69 1017.9
20260904173903 84 299 4.0 9.0 0.00 0.00 0.00 69 1017.9
20260904173803 84 298 4.0 9.0 0.00 0.00 0.00 69 1018.0
20260904173703 84 298 4.0 9.0 0.00 0.00 0.00 69 1018.1
20260904173603 84 298 4.0 9.0 0.00 0.00 0.00 69 1018.0
20260904173503 84 298 4.0 9.0 0.00 0.00 0.00 69 1018.0
20260904173403 84 299 4.0 9.0 0.00 0.00 0.00 69 1018.0
20260904173303 84 299 4.0 9.0 0.00 0.00 0.00 69 1017.9
20260904173203 84 300 4.0 9.0 0.00 0.00 0.00 69 1017.9
20260904173103 84 298 4.0 9.0 0.00 0.00 0.00 69 1017.9
20260904173003 84 298 4.0 9.0 0.00 0.00 0.00 69 1017.8
20260904172903 84 297 4.0 9.0 0.00 0.00 0.00 69 1017.9
20260904172803 84 298 4.0 9.0 0.00 0.00 0.00 69 1017.8
20260904172703 84 296 4.0 9.0 0.00 0.00 0.00 69 1017.8
20260904172603 84 297 4.0 8.0 0.00 0.00 0.00 69 1017.8
20260904172503 84 297 4.0 8.0 0.00 0.00 0.00 69 1017.9
20260904172403 84 297 4.0 8.0 0.00 0.00 0.00 69 1018.0
20260904172305 84 296 5.0 8.0 0.00 0.00 0.00 69 1017.9
20260904172203 84 296 4.0 8.0 0.00 0.00 0.00 68 1018.0
20260904172103 84 297 4.0 8.0 0.00 0.00 0.00 68 1017.9
20260904172003 85 297 4.0 8.0 0.00 0.00 0.00 68 1017.8
20260904171903 85 297 4.0 8.0 0.00 0.00 0.00 68 1017.9
20260904171803 85 297 4.0 8.0 0.00 0.00 0.00 68 1017.9
20260904171703 85 299 4.0 8.0 0.00 0.00 0.00 68 1017.9
20260904171605 85 297 3.0 8.0 0.00 0.00 0.00 68 1017.8
20260904171503 85 296 3.0 8.0 0.00 0.00 0.00 68 1017.7
20260904171403 85 295 3.0 9.0 0.00 0.00 0.00 68 1017.7
20260904171303 85 296 3.0 10.0 0.00 0.00 0.00 68 1017.8
20260904171203 85 296 3.0 10.0 0.00 0.00 0.00 67 1017.7
20260904171103 85 297 3.0 10.0 0.00 0.00 0.00 67 1017.7
20260904171003 85 296 4.0 10.0 0.00 0.00 0.00 67 1017.7
20260904170903 85 296 4.0 10.0 0.00 0.00 0.00 67 1017.7
20260904170803 85 296 4.0 10.0 0.00 0.00 0.00 67 1017.7
20260904170703 85 296 4.0 10.0 0.00 0.00 0.00 67 1017.7
20260904170603 85 297 4.0 10.0 0.00 0.00 0.00 67 1017.7
20260904170504 85 297 4.0 10.0 0.00 0.00 0.00 67 1017.8
20260904170403 85 297 4.0 10.0 0.00 0.00 0.00 67 1017.8
20260904170303 85 298 3.0 9.0 0.00 0.00 0.00 66 1017.8
20260904170203 86 298 3.0 9.0 0.00 0.00 0.00 66 1017.8
20260904170003 86 298 3.0 8.0 0.00 0.00 0.00 66 1017.7
20260904165903 86 298 2.0 8.0 0.00 0.00 0.00 65 1017.8
20260904165803 86 298 2.0 7.0 0.00 0.00 0.00 65 1017.7
20260904165703 86 300 2.0 7.0 0.00 0.00 0.00 65 1017.7
20260904165603 86 299 2.0 7.0 0.00 0.00 0.00 64 1017.6
20260904165503 86 301 2.0 7.0 0.00 0.00 0.00 64 1017.7
20260904165403 86 302 2.0 7.0 0.00 0.00 0.00 64 1017.6
20260904165305 86 303 2.0 7.0 0.00 0.00 0.00 64 1017.7
20260904165203 86 302 2.0 7.0 0.00 0.00 0.00 63 1017.6
20260904165103 86 300 3.0 7.0 0.00 0.00 0.00 62 1017.6
20260904165003 86 300 3.0 7.0 0.00 0.00 0.00 62 1017.6
20260904164903 86 300 3.0 7.0 0.00 0.00 0.00 61 1017.6
20260904164803 86 300 3.0 7.0 0.00 0.00 0.00 61 1017.6
20260904164703 86 299 3.0 7.0 0.00 0.00 0.00 61 1017.6
20260904164603 86 298 3.0 7.0 0.00 0.00 0.00 61 1017.6
20260904164503 86 296 3.0 7.0 0.00 0.00 0.00 61 1017.6
20260904164403 86 295 3.0 7.0 0.00 0.00 0.00 61 1017.5
20260904164303 86 295 3.0 7.0 0.00 0.00 0.00 61 1017.5
20260904164203 86 296 3.0 7.0 0.00 0.00 0.00 61 1017.6
20260904164103 86 297 3.0 7.0 0.00 0.00 0.00 61 1017.5
20260904164003 86 297 2.0 7.0 0.00 0.00 0.00 61 1017.5
20260904163903 86 296 2.0 6.0 0.00 0.00 0.00 61 1017.5
20260904163803 86 296 2.0 6.0 0.00 0.00 0.00 60 1017.5
20260904163703 86 296 2.0 5.0 0.00 0.00 0.00 61 1017.6
20260904163603 86 298 1.0 5.0 0.00 0.00 0.00 61 1017.6
20260904163503 86 299 1.0 5.0 0.00 0.00 0.00 61 1017.5
20260904163403 86 296 1.0 5.0 0.00 0.00 0.00 61 1017.6
20260904163303 86 296 2.0 7.0 0.00 0.00 0.00 61 1017.6
20260904163203 87 294 2.0 7.0 0.00 0.00 0.00 61 1017.6
20260904163103 87 294 1.0 7.0 0.00 0.00 0.00 62 1017.7
20260904163003 87 293 1.0 7.0 0.00 0.00 0.00 62 1017.5
20260904162903 87 293 2.0 7.0 0.00 0.00 0.00 62 1017.5
20260904162803 87 292 2.0 7.0 0.00 0.00 0.00 63 1017.7
20260904162703 87 292 2.0 7.0 0.00 0.00 0.00 62 1017.6
20260904162603 87 292 2.0 7.0 0.00 0.00 0.00 62 1017.6
20260904162503 87 291 2.0 7.0 0.00 0.00 0.00 61 1017.7
20260904162404 87 292 2.0 7.0 0.00 0.00 0.00 61 1017.6
20260904162306 87 292 2.0 6.0 0.00 0.00 0.00 60 1017.8
20260904162204 87 295 2.0 6.0 0.00 0.00 0.00 60 1017.7
20260904162104 87 296 2.0 6.0 0.00 0.00 0.00 60 1017.7
20260904162004 87 294 3.0 7.0 0.00 0.00 0.00 59 1017.6
20260904161904 87 294 2.0 7.0 0.00 0.00 0.00 59 1017.7
20260904161804 87 295 2.0 7.0 0.00 0.00 0.00 59 1017.6
20260904161704 87 295 3.0 7.0 0.00 0.00 0.00 59 1017.7
20260904161604 87 295 3.0 7.0 0.00 0.00 0.00 59 1017.8
20260904161504 87 296 3.0 7.0 0.00 0.00 0.00 59 1017.7
20260904161404 87 296 3.0 7.0 0.00 0.00 0.00 59 1017.7
20260904161304 87 295 3.0 8.0 0.00 0.00 0.00 59 1017.7
20260904161204 87 295 3.0 8.0 0.00 0.00 0.00 59 1017.7
20260904161104 87 294 3.0 8.0 0.00 0.00 0.00 59 1017.6
20260904161004 87 296 3.0 8.0 0.00 0.00 0.00 59 1017.6
20260904160904 87 297 3.0 8.0 0.00 0.00 0.00 59 1017.6
20260904160804 87 296 3.0 8.0 0.00 0.00 0.00 59 1017.6
20260904160704 87 297 3.0 8.0 0.00 0.00 0.00 59 1017.6
20260904160604 87 297 3.0 8.0 0.00 0.00 0.00 59 1017.5
20260904160504 87 297 3.0 8.0 0.00 0.00 0.00 59 1017.5
20260904160404 87 297 3.0 8.0 0.00 0.00 0.00 59 1017.5
20260904160304 87 297 3.0 8.0 0.00 0.00 0.00 59 1017.5
20260904160204 87 297 3.0 8.0 0.00 0.00 0.00 59 1017.5
20260904160104 87 298 2.0 8.0 0.00 0.00 0.00 59 1017.6
20260904160004 87 299 2.0 6.0 0.00 0.00 0.00 59 1017.5
20260904155904 87 299 2.0 6.0 0.00 0.00 0.00 59 1017.6
20260904155804 87 301 2.0 7.0 0.00 0.00 0.00 59 1017.6
20260904155704 87 302 2.0 7.0 0.00 0.00 0.00 58 1017.6
20260904155604 88 301 2.0 7.0 0.00 0.00 0.00 58 1017.5
20260904155504 88 301 2.0 7.0 0.00 0.00 0.00 58 1017.5
20260904155404 88 302 2.0 8.0 0.00 0.00 0.00 58 1017.5
20260904155306 88 302 2.0 8.0 0.00 0.00 0.00 58 1017.4
20260904155204 88 302 3.0 8.0 0.00 0.00 0.00 58 1017.4
20260904155104 88 301 2.0 8.0 0.00 0.00 0.00 58 1017.4
20260904155004 88 300 2.0 8.0 0.00 0.00 0.00 58 1017.3
20260904154904 88 299 2.0 8.0 0.00 0.00 0.00 58 1017.4
20260904154804 88 298 2.0 8.0 0.00 0.00 0.00 58 1017.5
20260904154704 88 298 2.0 8.0 0.00 0.00 0.00 58 1017.4
20260904154604 88 297 2.0 8.0 0.00 0.00 0.00 58 1017.4
20260904154504 88 298 2.0 8.0 0.00 0.00 0.00 58 1017.4
20260904154404 88 299 1.0 7.0 0.00 0.00 0.00 58 1017.4
20260904154304 88 298 1.0 7.0 0.00 0.00 0.00 58 1017.5
20260904154203 88 300 1.0 5.0 0.00 0.00 0.00 58 1017.5
20260904154103 88 299 1.0 6.0 0.00 0.00 0.00 58 1017.5
20260904154004 88 304 1.0 6.0 0.00 0.00 0.00 58 1017.5
20260904153904 88 301 2.0 6.0 0.00 0.00 0.00 58 1017.5
20260904153803 88 301 2.0 6.0 0.00 0.00 0.00 58 1017.5
20260904153703 88 300 2.0 6.0 0.00 0.00 0.00 58 1017.4
20260904153604 88 300 2.0 6.0 0.00 0.00 0.00 58 1017.5
20260904153503 88 302 2.0 6.0 0.00 0.00 0.00 58 1017.5
20260904153403 88 301 3.0 6.0 0.00 0.00 0.00 58 1017.5
20260904153303 88 301 3.0 6.0 0.00 0.00 0.00 58 1017.5
20260904153203 88 301 3.0 6.0 0.00 0.00 0.00 57 1017.5
20260904153103 88 301 3.0 9.0 0.00 0.00 0.00 57 1017.4
20260904153003 88 301 3.0 9.0 0.00 0.00 0.00 57 1017.4
20260904152903 88 302 3.0 9.0 0.00 0.00 0.00 57 1017.5
20260904152803 88 304 3.0 9.0 0.00 0.00 0.00 57 1017.4
20260904152703 88 305 3.0 9.0 0.00 0.00 0.00 57 1017.4
20260904152603 88 304 3.0 9.0 0.00 0.00 0.00 57 1017.4
20260904152503 88 301 3.0 9.0 0.00 0.00 0.00 57 1017.3
20260904152403 88 301 4.0 10.0 0.00 0.00 0.00 57 1017.2
20260904152306 88 301 4.0 10.0 0.00 0.00 0.00 57 1017.3
20260904152203 88 301 4.0 10.0 0.00 0.00 0.00 57 1017.3
20260904152103 88 301 4.0 10.0 0.00 0.00 0.00 57 1017.3
20260904152003 88 301 4.0 10.0 0.00 0.00 0.00 57 1017.3
20260904151903 88 300 4.0 10.0 0.00 0.00 0.00 56 1017.3
20260904151803 88 299 5.0 10.0 0.00 0.00 0.00 56 1017.4
20260904151703 88 299 5.0 10.0 0.00 0.00 0.00 56 1017.3
20260904151603 88 299 5.0 10.0 0.00 0.00 0.00 56 1017.3
20260904151503 88 299 5.0 10.0 0.00 0.00 0.00 57 1017.3
20260904151403 88 299 4.0 10.0 0.00 0.00 0.00 57 1017.2
20260904151303 88 299 4.0 10.0 0.00 0.00 0.00 58 1017.3
20260904151203 88 299 4.0 10.0 0.00 0.00 0.00 58 1017.3
20260904151103 88 299 4.0 10.0 0.00 0.00 0.00 58 1017.4
20260904151003 88 300 4.0 13.0 0.00 0.00 0.00 58 1017.3
20260904150903 88 301 4.0 13.0 0.00 0.00 0.00 58 1017.3
20260904150803 88 300 3.0 13.0 0.00 0.00 0.00 58 1017.4
20260904150703 88 297 4.0 13.0 0.00 0.00 0.00 58 1017.5
20260904150603 88 296 3.0 13.0 0.00 0.00 0.00 58 1017.4
20260904150503 88 297 4.0 13.0 0.00 0.00 0.00 58 1017.4
20260904150403 88 298 4.0 13.0 0.00 0.00 0.00 58 1017.5
20260904150303 88 299 4.0 13.0 0.00 0.00 0.00 58 1017.5
20260904150203 89 300 4.0 13.0 0.00 0.00 0.00 58 1017.4
20260904150103 88 298 4.0 13.0 0.00 0.00 0.00 58 1017.4
20260904150004 88 298 4.0 9.0 0.00 0.00 0.00 58 1017.4
20260904145903 89 297 4.0 9.0 0.00 0.00 0.00 58 1017.5
20260904145803 89 298 4.0 9.0 0.00 0.00 0.00 58 1017.5
20260904145703 89 301 4.0 9.0 0.00 0.00 0.00 58 1017.5
20260904145603 89 302 4.0 9.0 0.00 0.00 0.00 57 1017.4
20260904145503 89 301 4.0 9.0 0.00 0.00 0.00 57 1017.4
20260904145403 89 299 4.0 9.0 0.00 0.00 0.00 57 1017.4
20260904145305 89 299 4.0 9.0 0.00 0.00 0.00 57 1017.3
20260904145203 89 299 4.0 9.0 0.00 0.00 0.00 57 1017.4
20260904145103 89 300 3.0 9.0 0.00 0.00 0.00 57 1017.3
20260904145003 89 299 4.0 9.0 0.00 0.00 0.00 57 1017.4
20260904144903 89 300 3.0 9.0 0.00 0.00 0.00 58 1017.3
20260904144803 89 300 3.0 9.0 0.00 0.00 0.00 57 1017.2
20260904144703 89 297 4.0 11.0 0.00 0.00 0.00 57 1017.2
20260904144603 89 297 4.0 11.0 0.00 0.00 0.00 57 1017.2
20260904144503 89 298 4.0 11.0 0.00 0.00 0.00 57 1017.2
20260904144403 89 299 4.0 11.0 0.00 0.00 0.00 57 1017.1
20260904144303 89 299 4.0 12.0 0.00 0.00 0.00 57 1017.2
20260904144203 89 299 4.0 12.0 0.00 0.00 0.00 57 1017.1
20260904144103 89 301 4.0 12.0 0.00 0.00 0.00 57 1017.2
20260904144003 89 301 5.0 12.0 0.00 0.00 0.00 57 1017.1
20260904143903 89 300 5.0 12.0 0.00 0.00 0.00 57 1017.2
20260904143803 89 300 5.0 12.0 0.00 0.00 0.00 57 1017.2
20260904143703 89 301 5.0 12.0 0.00 0.00 0.00 57 1017.2
20260904143603 89 302 5.0 12.0 0.00 0.00 0.00 57 1017.0
20260904143503 89 304 5.0 12.0 0.00 0.00 0.00 57 1017.1
20260904143403 89 303 5.0 12.0 0.00 0.00 0.00 56 1017.0
20260904143303 89 304 5.0 10.0 0.00 0.00 0.00 56 1017.1
20260904143203 89 303 5.0 10.0 0.00 0.00 0.00 56 1017.0
20260904143103 89 303 5.0 10.0 0.00 0.00 0.00 56 1017.0
20260904143003 89 302 5.0 10.0 0.00 0.00 0.00 56 1016.9
20260904142903 89 302 5.0 10.0 0.00 0.00 0.00 56 1017.0
20260904142803 89 302 5.0 10.0 0.00 0.00 0.00 56 1017.0
20260904142703 89 302 5.0 10.0 0.00 0.00 0.00 56 1017.1
20260904142603 89 301 5.0 10.0 0.00 0.00 0.00 56 1017.0
20260904142503 89 300 5.0 10.0 0.00 0.00 0.00 56 1017.0
20260904142403 89 298 5.0 10.0 0.00 0.00 0.00 56 1017.0
20260904142306 89 299 5.0 10.0 0.00 0.00 0.00 56 1017.0
20260904142203 89 298 4.0 10.0 0.00 0.00 0.00 56 1017.1
20260904142103 89 297 4.0 10.0 0.00 0.00 0.00 56 1017.1
20260904142004 89 297 4.0 10.0 0.00 0.00 0.00 55 1017.0
20260904141903 89 300 4.0 10.0 0.00 0.00 0.00 55 1017.1
20260904141803 89 299 4.0 10.0 0.00 0.00 0.00 55 1016.9
20260904141703 89 299 4.0 10.0 0.00 0.00 0.00 55 1017.1
20260904141603 89 299 4.0 10.0 0.00 0.00 0.00 55 1017.1
20260904141503 89 300 4.0 10.0 0.00 0.00 0.00 55 1017.0
20260904141403 90 301 4.0 10.0 0.00 0.00 0.00 55 1017.2
20260904141303 90 300 3.0 10.0 0.00 0.00 0.00 55 1017.0
20260904141203 90 302 3.0 9.0 0.00 0.00 0.00 55 1017.1
20260904141103 90 300 3.0 9.0 0.00 0.00 0.00 55 1017.0
20260904141003 90 300 3.0 9.0 0.00 0.00 0.00 55 1017.1
20260904140903 90 298 3.0 8.0 0.00 0.00 0.00 54 1017.0
20260904140803 90 297 3.0 11.0 0.00 0.00 0.00 55 1017.1
20260904140703 90 299 3.0 11.0 0.00 0.00 0.00 54 1017.0
20260904140603 89 299 4.0 11.0 0.00 0.00 0.00 54 1017.0
20260904140503 90 298 4.0 11.0 0.00 0.00 0.00 54 1017.0
20260904140403 90 299 4.0 11.0 0.00 0.00 0.00 54 1017.0
20260904140303 90 299 4.0 11.0 0.00 0.00 0.00 54 1017.0
20260904140203 90 298 4.0 11.0 0.00 0.00 0.00 54 1017.0
20260904140003 90 299 4.0 11.0 0.00 0.00 0.00 54 1016.9
20260904135903 90 299 4.0 11.0 0.00 0.00 0.00 54 1016.9
20260904135803 90 299 4.0 11.0 0.00 0.00 0.00 53 1017.0
20260904135703 90 299 4.0 11.0 0.00 0.00 0.00 53 1017.0
20260904135604 90 298 3.0 11.0 0.00 0.00 0.00 53 1017.0
20260904135504 90 299 3.0 11.0 0.00 0.00 0.00 53 1017.0
20260904135404 90 297 2.0 8.0 0.00 0.00 0.00 54 1017.0
20260904135306 90 298 3.0 8.0 0.00 0.00 0.00 53 1017.0
20260904135204 90 297 3.0 8.0 0.00 0.00 0.00 54 1017.1
20260904135104 90 297 3.0 8.0 0.00 0.00 0.00 53 1017.0
20260904135004 90 297 3.0 8.0 0.00 0.00 0.00 53 1017.0
20260904134904 90 296 3.0 8.0 0.00 0.00 0.00 53 1017.1
20260904134804 90 298 3.0 9.0 0.00 0.00 0.00 53 1017.1
20260904134704 90 298 3.0 9.0 0.00 0.00 0.00 53 1017.2
20260904134604 90 299 4.0 9.0 0.00 0.00 0.00 53 1017.1
20260904134504 90 299 4.0 9.0 0.00 0.00 0.00 53 1017.2
20260904134404 90 298 4.0 9.0 0.00 0.00 0.00 53 1017.3
20260904134304 90 298 4.0 9.0 0.00 0.00 0.00 53 1017.2
20260904134204 90 299 4.0 9.0 0.00 0.00 0.00 53 1017.2
20260904134104 90 299 4.0 9.0 0.00 0.00 0.00 53 1017.2
20260904134004 90 299 4.0 9.0 0.00 0.00 0.00 53 1017.2
20260904133904 89 298 4.0 9.0 0.00 0.00 0.00 53 1017.3
20260904133804 89 298 4.0 9.0 0.00 0.00 0.00 53 1017.3
20260904133704 90 296 4.0 12.0 0.00 0.00 0.00 53 1017.4
20260904133604 90 295 4.0 12.0 0.00 0.00 0.00 53 1017.4
20260904133504 90 296 4.0 12.0 0.00 0.00 0.00 53 1017.3
20260904133404 90 296 5.0 12.0 0.00 0.00 0.00 53 1017.3
20260904133304 89 297 5.0 12.0 0.00 0.00 0.00 53 1017.3
20260904133204 89 296 5.0 12.0 0.00 0.00 0.00 53 1017.4
20260904133104 90 296 5.0 12.0 0.00 0.00 0.00 53 1017.3
20260904133004 90 297 5.0 12.0 0.00 0.00 0.00 53 1017.3
20260904132904 90 297 5.0 12.0 0.00 0.00 0.00 53 1017.3
20260904132804 90 297 5.0 12.0 0.00 0.00 0.00 53 1017.4
20260904132704 90 298 4.0 12.0 0.00 0.00 0.00 54 1017.4
20260904132604 90 297 4.0 11.0 0.00 0.00 0.00 54 1017.3
20260904132504 90 296 5.0 11.0 0.00 0.00 0.00 53 1017.2
20260904132404 90 297 4.0 10.0 0.00 0.00 0.00 53 1017.2
20260904132306 90 296 4.0 10.0 0.00 0.00 0.00 54 1017.2
20260904132204 90 297 4.0 10.0 0.00 0.00 0.00 54 1017.1
20260904132104 90 295 4.0 10.0 0.00 0.00 0.00 53 1017.2
20260904132004 90 295 4.0 10.0 0.00 0.00 0.00 53 1017.1
20260904131904 90 293 4.0 10.0 0.00 0.00 0.00 53 1017.2
20260904131804 90 293 4.0 10.0 0.00 0.00 0.00 53 1017.2
20260904131704 90 294 4.0 9.0 0.00 0.00 0.00 53 1017.2
20260904131604 90 293 4.0 10.0 0.00 0.00 0.00 53 1017.2
20260904131504 90 295 4.0 10.0 0.00 0.00 0.00 53 1017.2
20260904131404 90 293 4.0 10.0 0.00 0.00 0.00 53 1017.2
20260904131303 90 294 4.0 10.0 0.00 0.00 0.00 53 1017.3
20260904131203 90 294 4.0 10.0 0.00 0.00 0.00 53 1017.3
20260904131103 90 293 4.0 10.0 0.00 0.00 0.00 53 1017.2
20260904131003 90 295 4.0 10.0 0.00 0.00 0.00 53 1017.1
20260904130904 90 297 4.0 11.0 0.00 0.00 0.00 53 1017.1
20260904130803 90 297 4.0 11.0 0.00 0.00 0.00 53 1017.2
20260904130703 90 295 4.0 11.0 0.00 0.00 0.00 53 1017.4
20260904130604 90 295 3.0 11.0 0.00 0.00 0.00 53 1017.2
20260904130503 90 294 3.0 11.0 0.00 0.00 0.00 53 1017.2
20260904130403 90 294 3.0 11.0 0.00 0.00 0.00 53 1017.2
20260904130303 90 293 3.0 11.0 0.00 0.00 0.00 53 1017.2
20260904130203 90 295 3.0 11.0 0.00 0.00 0.00 54 1017.3
20260904130105 90 296 3.0 11.0 0.00 0.00 0.00 54 1017.3
20260904130004 90 295 3.0 11.0 0.00 0.00 0.00 54 1017.1
20260904125903 90 294 3.0 7.0 0.00 0.00 0.00 54 1017.3
20260904125803 90 295 3.0 7.0 0.00 0.00 0.00 54 1017.2
20260904125703 90 295 3.0 7.0 0.00 0.00 0.00 54 1017.3
20260904125603 90 297 3.0 7.0 0.00 0.00 0.00 54 1017.2
20260904125503 90 298 3.0 7.0 0.00 0.00 0.00 54 1017.2
20260904125403 90 299 3.0 7.0 0.00 0.00 0.00 54 1017.2
20260904125305 90 298 3.0 7.0 0.00 0.00 0.00 54 1017.2
20260904125203 90 298 3.0 7.0 0.00 0.00 0.00 54 1017.3
20260904125103 90 299 3.0 7.0 0.00 0.00 0.00 55 1017.3
20260904125003 90 299 3.0 7.0 0.00 0.00 0.00 55 1017.4
20260904124903 90 298 3.0 7.0 0.00 0.00 0.00 55 1017.4
20260904124803 90 297 3.0 8.0 0.00 0.00 0.00 55 1017.3
20260904124703 90 299 3.0 8.0 0.00 0.00 0.00 55 1017.4
20260904124603 90 300 3.0 8.0 0.00 0.00 0.00 55 1017.5
20260904124503 90 299 3.0 8.0 0.00 0.00 0.00 55 1017.5
20260904124403 90 298 3.0 8.0 0.00 0.00 0.00 55 1017.5
20260904124303 90 299 4.0 8.0 0.00 0.00 0.00 55 1017.5
20260904124203 90 299 4.0 10.0 0.00 0.00 0.00 55 1017.5
20260904124103 90 298 4.0 10.0 0.00 0.00 0.00 55 1017.3
20260904124003 90 298 4.0 11.0 0.00 0.00 0.00 55 1017.4
20260904123903 90 299 5.0 11.0 0.00 0.00 0.00 55 1017.4
20260904123803 90 300 4.0 11.0 0.00 0.00 0.00 55 1017.4
20260904123703 90 299 4.0 11.0 0.00 0.00 0.00 55 1017.5
20260904123603 90 300 4.0 11.0 0.00 0.00 0.00 55 1017.5
20260904123503 90 299 4.0 11.0 0.00 0.00 0.00 55 1017.5
20260904123403 90 300 4.0 11.0 0.00 0.00 0.00 55 1017.6
20260904123303 90 299 4.0 11.0 0.00 0.00 0.00 55 1017.5
20260904123203 90 299 4.0 11.0 0.00 0.00 0.00 55 1017.5
20260904123103 89 300 4.0 15.0 0.00 0.00 0.00 55 1017.6
20260904123003 89 300 4.0 15.0 0.00 0.00 0.00 55 1017.5
20260904122903 89 301 4.0 15.0 0.00 0.00 0.00 55 1017.6
20260904122803 89 300 4.0 15.0 0.00 0.00 0.00 55 1017.6
20260904122703 89 300 5.0 15.0 0.00 0.00 0.00 55 1017.6
20260904122603 89 299 5.0 15.0 0.00 0.00 0.00 55 1017.6
20260904122503 89 301 5.0 15.0 0.00 0.00 0.00 55 1017.6
20260904122403 89 300 5.0 15.0 0.00 0.00 0.00 55 1017.7
20260904122306 89 299 5.0 15.0 0.00 0.00 0.00 56 1017.6
20260904122203 89 301 5.0 15.0 0.00 0.00 0.00 56 1017.7
20260904122103 89 299 5.0 10.0 0.00 0.00 0.00 56 1017.7
20260904122003 89 300 5.0 10.0 0.00 0.00 0.00 56 1017.7
20260904121903 89 298 5.0 10.0 0.00 0.00 0.00 56 1017.8
20260904121803 89 298 5.0 12.0 0.00 0.00 0.00 56 1017.6
20260904121703 89 298 5.0 14.0 0.00 0.00 0.00 56 1017.5
20260904121603 89 297 5.0 14.0 0.00 0.00 0.00 56 1017.5
20260904121503 89 297 5.0 14.0 0.00 0.00 0.00 56 1017.6
20260904121403 89 298 5.0 14.0 0.00 0.00 0.00 56 1017.5
20260904121303 89 298 5.0 14.0 0.00 0.00 0.00 56 1017.5
20260904121203 89 296 5.0 14.0 0.00 0.00 0.00 56 1017.5
20260904121103 89 298 5.0 14.0 0.00 0.00 0.00 56 1017.5
20260904121003 89 298 5.0 14.0 0.00 0.00 0.00 56 1017.5
20260904120903 89 298 5.0 14.0 0.00 0.00 0.00 55 1017.5
20260904120803 89 298 4.0 14.0 0.00 0.00 0.00 56 1017.6
20260904120703 89 300 4.0 14.0 0.00 0.00 0.00 56 1017.5
20260904120603 90 300 3.0 8.0 0.00 0.00 0.00 56 1017.5
20260904120503 90 299 3.0 8.0 0.00 0.00 0.00 56 1017.5
20260904120403 90 297 3.0 9.0 0.00 0.00 0.00 56 1017.6
20260904120303 90 300 3.0 9.0 0.00 0.00 0.00 56 1017.6
20260904120203 90 303 3.0 9.0 0.00 0.00 0.00 57 1017.6
20260904120003 89 303 3.0 11.0 0.00 0.00 0.00 57 1017.7
20260904115903 89 301 3.0 11.0 0.00 0.00 0.00 57 1017.6
20260904115803 89 301 4.0 11.0 0.00 0.00 0.00 57 1017.6
20260904115703 89 299 4.0 11.0 0.00 0.00 0.00 57 1017.7
20260904115603 89 299 4.0 11.0 0.00 0.00 0.00 57 1017.6
20260904115503 89 299 4.0 11.0 0.00 0.00 0.00 57 1017.7
20260904115403 89 300 4.0 11.0 0.00 0.00 0.00 57 1017.7
20260904115306 89 300 4.0 11.0 0.00 0.00 0.00 57 1017.7
20260904115203 89 299 3.0 11.0 0.00 0.00 0.00 57 1017.7
20260904115103 89 299 3.0 9.0 0.00 0.00 0.00 57 1017.6
20260904115003 89 299 3.0 9.0 0.00 0.00 0.00 57 1017.6
20260904114903 89 300 3.0 9.0 0.00 0.00 0.00 57 1017.7
20260904114803 89 300 3.0 8.0 0.00 0.00 0.00 58 1017.7
20260904114704 89 301 3.0 8.0 0.00 0.00 0.00 58 1017.6
20260904114604 89 301 3.0 8.0 0.00 0.00 0.00 58 1017.6
20260904114504 89 301 3.0 8.0 0.00 0.00 0.00 58 1017.6
20260904114404 89 302 3.0 8.0 0.00 0.00 0.00 58 1017.6
20260904114304 89 301 3.0 8.0 0.00 0.00 0.00 58 1017.6
20260904114204 89 298 3.0 10.0 0.00 0.00 0.00 58 1017.6
20260904114104 89 294 4.0 15.0 0.00 0.00 0.00 58 1017.7
20260904114004 89 293 4.0 15.0 0.00 0.00 0.00 59 1017.6
20260904113904 89 293 4.0 15.0 0.00 0.00 0.00 59 1017.6
20260904113804 89 293 4.0 15.0 0.00 0.00 0.00 59 1017.7
20260904113704 89 292 4.0 15.0 0.00 0.00 0.00 59 1017.8
20260904113604 89 293 4.0 15.0 0.00 0.00 0.00 59 1017.8
20260904113504 89 293 4.0 15.0 0.00 0.00 0.00 59 1017.8
20260904113404 89 293 5.0 15.0 0.00 0.00 0.00 59 1017.6
20260904113304 89 293 5.0 15.0 0.00 0.00 0.00 59 1017.7
20260904113204 89 294 5.0 15.0 0.00 0.00 0.00 59 1017.7
20260904113104 89 296 4.0 11.0 0.00 0.00 0.00 59 1017.7
20260904113004 89 296 4.0 11.0 0.00 0.00 0.00 59 1017.7
20260904112904 89 296 4.0 11.0 0.00 0.00 0.00 59 1017.8
20260904112804 89 295 4.0 11.0 0.00 0.00 0.00 59 1017.8
20260904112704 89 296 4.0 11.0 0.00 0.00 0.00 59 1017.7
20260904112604 89 294 5.0 13.0 0.00 0.00 0.00 59 1017.8
20260904112504 89 295 5.0 13.0 0.00 0.00 0.00 59 1017.9
20260904112404 89 294 5.0 13.0 0.00 0.00 0.00 59 1017.8
20260904112306 89 295 5.0 13.0 0.00 0.00 0.00 59 1017.8
20260904112204 89 295 5.0 13.0 0.00 0.00 0.00 59 1017.8
20260904112104 89 296 5.0 13.0 0.00 0.00 0.00 59 1017.7
20260904112004 89 296 5.0 13.0 0.00 0.00 0.00 59 1017.8
20260904111904 89 296 4.0 13.0 0.00 0.00 0.00 59 1017.7
20260904111804 89 296 5.0 13.0 0.00 0.00 0.00 59 1017.7
20260904111704 89 297 5.0 14.0 0.00 0.00 0.00 59 1017.8
20260904111604 89 297 4.0 14.0 0.00 0.00 0.00 60 1017.7
20260904111504 89 296 4.0 14.0 0.00 0.00 0.00 60 1017.7
20260904111404 89 298 4.0 14.0 0.00 0.00 0.00 60 1017.7
20260904111304 89 295 4.0 14.0 0.00 0.00 0.00 61 1017.8
20260904111204 89 295 4.0 14.0 0.00 0.00 0.00 61 1017.8
20260904111104 89 294 4.0 14.0 0.00 0.00 0.00 61 1017.8
20260904111004 89 294 5.0 14.0 0.00 0.00 0.00 61 1017.9
20260904110904 89 296 5.0 14.0 0.00 0.00 0.00 61 1017.9
20260904110804 89 297 4.0 14.0 0.00 0.00 0.00 61 1017.9
20260904110704 89 297 4.0 10.0 0.00 0.00 0.00 61 1017.9
20260904110604 89 297 5.0 11.0 0.00 0.00 0.00 61 1017.8
20260904110504 89 299 5.0 11.0 0.00 0.00 0.00 61 1017.7
20260904110403 89 300 5.0 11.0 0.00 0.00 0.00 61 1017.7
20260904110304 89 301 5.0 11.0 0.00 0.00 0.00 61 1017.7
20260904110203 89 300 5.0 11.0 0.00 0.00 0.00 62 1017.8
20260904110103 89 299 5.0 13.0 0.00 0.00 0.00 62 1017.8
20260904110004 89 299 5.0 13.0 0.00 0.00 0.00 62 1017.8
20260904105903 89 298 5.0 13.0 0.00 0.00 0.00 62 1017.7
20260904105803 89 297 5.0 13.0 0.00 0.00 0.00 62 1017.7
20260904105703 89 298 5.0 13.0 0.00 0.00 0.00 61 1017.9
20260904105603 89 298 5.0 13.0 0.00 0.00 0.00 61 1017.9
20260904105503 89 297 4.0 13.0 0.00 0.00 0.00 61 1017.8
20260904105403 89 297 4.0 13.0 0.00 0.00 0.00 61 1017.8
20260904105306 89 297 5.0 13.0 0.00 0.00 0.00 61 1017.8
20260904105203 89 296 4.0 13.0 0.00 0.00 0.00 61 1017.7
20260904105104 89 298 4.0 11.0 0.00 0.00 0.00 61 1017.8
20260904105003 89 303 4.0 11.0 0.00 0.00 0.00 61 1017.9
20260904104903 89 304 5.0 11.0 0.00 0.00 0.00 61 1017.9
20260904104803 89 303 5.0 11.0 0.00 0.00 0.00 60 1017.9
20260904104703 89 302 4.0 10.0 0.00 0.00 0.00 60 1017.8
20260904104603 89 302 5.0 13.0 0.00 0.00 0.00 60 1017.8
20260904104504 89 302 5.0 13.0 0.00 0.00 0.00 60 1017.7
20260904104403 89 301 5.0 13.0 0.00 0.00 0.00 60 1017.6
20260904104303 89 301 5.0 13.0 0.00 0.00 0.00 60 1017.7
20260904104203 89 302 5.0 13.0 0.00 0.00 0.00 60 1017.6
20260904104103 89 301 5.0 13.0 0.00 0.00 0.00 60 1017.6
20260904104004 89 299 5.0 13.0 0.00 0.00 0.00 60 1017.6
20260904103903 89 298 5.0 13.0 0.00 0.00 0.00 60 1017.7
20260904103803 89 298 4.0 13.0 0.00 0.00 0.00 60 1017.7
20260904103703 89 299 4.0 13.0 0.00 0.00 0.00 61 1017.7
20260904103604 89 298 4.0 13.0 0.00 0.00 0.00 61 1017.6
20260904103503 89 298 4.0 13.0 0.00 0.00 0.00 60 1017.6
20260904103404 89 297 4.0 13.0 0.00 0.00 0.00 60 1017.7
20260904103303 89 298 3.0 13.0 0.00 0.00 0.00 60 1017.6
20260904103203 89 295 3.0 13.0 0.00 0.00 0.00 60 1017.7
20260904103103 89 296 3.0 10.0 0.00 0.00 0.00 60 1017.8
20260904103003 89 295 3.0 10.0 0.00 0.00 0.00 60 1017.8
20260904102903 89 297 3.0 8.0 0.00 0.00 0.00 60 1017.7
20260904102803 89 297 4.0 9.0 0.00 0.00 0.00 60 1017.6
20260904102703 88 296 4.0 10.0 0.00 0.00 0.00 60 1017.6
20260904102603 88 296 4.0 10.0 0.00 0.00 0.00 60 1017.6
20260904102503 88 299 4.0 13.0 0.00 0.00 0.00 60 1017.6
20260904102403 88 299 4.0 13.0 0.00 0.00 0.00 60 1017.7
20260904102306 88 299 4.0 13.0 0.00 0.00 0.00 60 1017.6
20260904102203 88 300 4.0 13.0 0.00 0.00 0.00 60 1017.6
20260904102103 88 302 4.0 13.0 0.00 0.00 0.00 60 1017.6
20260904102003 88 302 4.0 13.0 0.00 0.00 0.00 60 1017.7
20260904101903 88 302 4.0 13.0 0.00 0.00 0.00 60 1017.8
20260904101803 88 301 4.0 13.0 0.00 0.00 0.00 60 1017.7
20260904101703 88 300 4.0 13.0 0.00 0.00 0.00 60 1017.7
20260904101603 88 301 4.0 13.0 0.00 0.00 0.00 60 1017.8
20260904101503 88 298 3.0 8.0 0.00 0.00 0.00 60 1017.7
20260904101403 88 297 3.0 8.0 0.00 0.00 0.00 60 1017.7
20260904101303 88 299 3.0 8.0 0.00 0.00 0.00 61 1017.8
20260904101203 88 298 3.0 8.0 0.00 0.00 0.00 61 1017.8
20260904101103 88 294 3.0 8.0 0.00 0.00 0.00 61 1017.8
20260904101003 88 293 3.0 8.0 0.00 0.00 0.00 60 1017.8
20260904100903 88 291 3.0 8.0 0.00 0.00 0.00 61 1017.8
20260904100803 88 295 3.0 8.0 0.00 0.00 0.00 61 1017.8
20260904100703 88 299 3.0 13.0 0.00 0.00 0.00 60 1017.7
20260904100603 88 299 4.0 13.0 0.00 0.00 0.00 60 1017.7
20260904100503 88 299 4.0 13.0 0.00 0.00 0.00 60 1017.8
20260904100403 88 300 5.0 13.0 0.00 0.00 0.00 60 1017.9
20260904100303 88 300 5.0 13.0 0.00 0.00 0.00 60 1017.9
20260904100203 88 299 5.0 13.0 0.00 0.00 0.00 60 1017.9
20260904100103 88 300 5.0 13.0 0.00 0.00 0.00 60 1017.9
20260904100003 88 300 5.0 13.0 0.00 0.00 0.00 59 1017.9
20260904095903 88 301 5.0 13.0 0.00 0.00 0.00 60 1017.9
20260904095803 88 300 5.0 13.0 0.00 0.00 0.00 60 1017.9
20260904095703 88 299 5.0 11.0 0.00 0.00 0.00 60 1017.9
20260904095603 88 299 4.0 10.0 0.00 0.00 0.00 60 1017.9
20260904095503 88 299 4.0 10.0 0.00 0.00 0.00 60 1017.7
20260904095403 88 298 4.0 11.0 0.00 0.00 0.00 59 1017.8
20260904095306 88 299 4.0 11.0 0.00 0.00 0.00 59 1017.8
20260904095203 88 299 4.0 12.0 0.00 0.00 0.00 59 1017.7
20260904095103 88 298 4.0 12.0 0.00 0.00 0.00 59 1017.7
20260904095003 88 296 4.0 12.0 0.00 0.00 0.00 58 1017.6
20260904094903 88 296 4.0 12.0 0.00 0.00 0.00 58 1017.7
20260904094803 88 295 5.0 13.0 0.00 0.00 0.00 58 1017.7
20260904094703 88 296 5.0 13.0 0.00 0.00 0.00 58 1017.7
20260904094603 88 297 5.0 13.0 0.00 0.00 0.00 59 1017.7
20260904094503 88 299 5.0 13.0 0.00 0.00 0.00 59 1017.6
20260904094403 88 298 5.0 13.0 0.00 0.00 0.00 60 1017.7
20260904094303 88 297 5.0 13.0 0.00 0.00 0.00 60 1017.8
20260904094203 88 297 5.0 13.0 0.00 0.00 0.00 60 1017.8
20260904094103 88 297 5.0 13.0 0.00 0.00 0.00 59 1017.8
20260904094003 88 300 4.0 13.0 0.00 0.00 0.00 59 1017.9
20260904093903 88 300 5.0 13.0 0.00 0.00 0.00 59 1017.9
20260904093803 88 301 4.0 11.0 0.00 0.00 0.00 60 1018.0
20260904093703 88 301 4.0 11.0 0.00 0.00 0.00 59 1017.9
20260904093603 88 301 4.0 11.0 0.00 0.00 0.00 60 1017.9
20260904093503 88 297 4.0 11.0 0.00 0.00 0.00 60 1017.9
20260904093403 88 299 4.0 11.0 0.00 0.00 0.00 60 1017.8
20260904093303 88 300 4.0 11.0 0.00 0.00 0.00 60 1017.8
20260904093203 88 301 4.0 11.0 0.00 0.00 0.00 60 1017.7
20260904093103 88 301 4.0 11.0 0.00 0.00 0.00 59 1017.6
20260904093003 88 299 4.0 11.0 0.00 0.00 0.00 59 1017.7
20260904092903 88 301 4.0 11.0 0.00 0.00 0.00 59 1017.7
20260904092803 88 304 4.0 11.0 0.00 0.00 0.00 59 1017.7
20260904092703 88 303 4.0 10.0 0.00 0.00 0.00 59 1017.6
20260904092603 88 303 4.0 10.0 0.00 0.00 0.00 59 1017.6
20260904092504 88 302 4.0 10.0 0.00 0.00 0.00 59 1017.7
20260904092404 88 300 4.0 10.0 0.00 0.00 0.00 59 1017.7
20260904092306 88 301 4.0 11.0 0.00 0.00 0.00 59 1017.7
20260904092204 88 300 4.0 11.0 0.00 0.00 0.00 59 1017.7
20260904092105 88 300 4.0 11.0 0.00 0.00 0.00 58 1017.7
20260904092004 88 301 4.0 11.0 0.00 0.00 0.00 58 1017.7
20260904091904 88 299 4.0 11.0 0.00 0.00 0.00 58 1017.5
20260904091804 88 297 4.0 11.0 0.00 0.00 0.00 58 1017.6
20260904091704 88 298 4.0 11.0 0.00 0.00 0.00 58 1017.6
20260904091604 88 298 4.0 11.0 0.00 0.00 0.00 58 1017.6
20260904091504 88 297 4.0 11.0 0.00 0.00 0.00 57 1017.6
20260904091404 88 296 4.0 11.0 0.00 0.00 0.00 58 1017.6
20260904091304 88 295 4.0 11.0 0.00 0.00 0.00 58 1017.7
20260904091204 88 295 4.0 11.0 0.00 0.00 0.00 59 1017.6
20260904091104 88 295 4.0 10.0 0.00 0.00 0.00 60 1017.7
20260904091004 88 293 4.0 9.0 0.00 0.00 0.00 60 1017.7
20260904090904 88 293 4.0 9.0 0.00 0.00 0.00 59 1017.8
20260904090804 88 295 4.0 9.0 0.00 0.00 0.00 59 1017.7
20260904090704 88 295 4.0 9.0 0.00 0.00 0.00 59 1017.7
20260904090604 88 296 4.0 12.0 0.00 0.00 0.00 59 1017.7
20260904090504 88 297 4.0 12.0 0.00 0.00 0.00 60 1017.7
20260904090404 87 298 5.0 12.0 0.00 0.00 0.00 60 1017.8
20260904090304 87 299 4.0 12.0 0.00 0.00 0.00 61 1017.8
20260904090204 87 298 4.0 12.0 0.00 0.00 0.00 61 1017.8
20260904090104 87 299 5.0 12.0 0.00 0.00 0.00 60 1017.9
20260904090004 87 299 5.0 12.0 0.00 0.00 0.00 60 1017.9
20260904085904 87 299 5.0 12.0 0.00 0.00 0.00 60 1017.9
20260904085804 87 298 5.0 12.0 0.00 0.00 0.00 60 1017.9
20260904085704 88 297 5.0 12.0 0.00 0.00 0.00 60 1017.8
20260904085604 88 296 4.0 12.0 0.00 0.00 0.00 60 1017.8
20260904085504 88 297 4.0 12.0 0.00 0.00 0.00 61 1017.9
20260904085404 88 296 4.0 12.0 0.00 0.00 0.00 60 1017.8
20260904085306 88 296 4.0 12.0 0.00 0.00 0.00 60 1017.8
20260904085204 88 294 4.0 12.0 0.00 0.00 0.00 60 1017.9
20260904085104 88 294 4.0 12.0 0.00 0.00 0.00 60 1017.9
20260904085004 88 295 3.0 12.0 0.00 0.00 0.00 60 1018.0
20260904084904 88 295 3.0 12.0 0.00 0.00 0.00 60 1017.9
20260904084804 88 295 3.0 12.0 0.00 0.00 0.00 60 1017.9
20260904084704 88 294 4.0 12.0 0.00 0.00 0.00 60 1018.0
20260904084604 87 295 4.0 12.0 0.00 0.00 0.00 60 1017.9
20260904084504 88 296 4.0 12.0 0.00 0.00 0.00 60 1017.9
20260904084404 87 295 5.0 12.0 0.00 0.00 0.00 59 1018.0
20260904084304 87 296 4.0 12.0 0.00 0.00 0.00 59 1017.9
20260904084204 87 297 4.0 9.0 0.00 0.00 0.00 59 1018.0
20260904084104 87 297 4.0 9.0 0.00 0.00 0.00 59 1018.0
20260904084004 87 298 5.0 10.0 0.00 0.00 0.00 59 1018.0
20260904083904 87 299 4.0 10.0 0.00 0.00 0.00 59 1018.0
20260904083804 87 300 4.0 10.0 0.00 0.00 0.00 60 1018.0
20260904083703 87 301 4.0 10.0 0.00 0.00 0.00 60 1017.8
20260904083603 87 301 4.0 10.0 0.00 0.00 0.00 60 1017.7
20260904083503 87 302 4.0 10.0 0.00 0.00 0.00 60 1017.8
20260904083403 87 303 4.0 10.0 0.00 0.00 0.00 60 1017.7
20260904083304 87 303 4.0 10.0 0.00 0.00 0.00 60 1017.7
20260904083204 87 303 4.0 10.0 0.00 0.00 0.00 61 1017.7
20260904083103 87 303 4.0 10.0 0.00 0.00 0.00 61 1017.8
20260904083004 87 302 4.0 9.0 0.00 0.00 0.00 61 1017.8
20260904082903 87 301 4.0 9.0 0.00 0.00 0.00 61 1017.7
20260904082803 87 302 3.0 9.0 0.00 0.00 0.00 61 1017.8
20260904082703 87 304 3.0 9.0 0.00 0.00 0.00 61 1017.7
20260904082603 87 304 3.0 9.0 0.00 0.00 0.00 62 1017.8
20260904082503 87 301 3.0 8.0 0.00 0.00 0.00 62 1017.8
20260904082403 87 301 3.0 11.0 0.00 0.00 0.00 62 1017.8
20260904082305 87 301 3.0 11.0 0.00 0.00 0.00 62 1017.8
20260904082203 87 299 3.0 11.0 0.00 0.00 0.00 62 1017.9
20260904082103 87 297 3.0 11.0 0.00 0.00 0.00 62 1017.8
20260904082003 87 297 4.0 11.0 0.00 0.00 0.00 62 1017.8
20260904081904 87 298 4.0 11.0 0.00 0.00 0.00 62 1017.7
20260904081804 87 298 4.0 11.0 0.00 0.00 0.00 62 1017.7
20260904081703 87 296 4.0 11.0 0.00 0.00 0.00 62 1017.8
20260904081603 87 297 4.0 11.0 0.00 0.00 0.00 63 1017.7
20260904081503 87 298 4.0 11.0 0.00 0.00 0.00 63 1017.6
20260904081403 87 300 4.0 12.0 0.00 0.00 0.00 62 1017.6
20260904081303 87 299 4.0 12.0 0.00 0.00 0.00 62 1017.6
20260904081203 87 302 4.0 12.0 0.00 0.00 0.00 63 1017.6
20260904081103 87 304 4.0 12.0 0.00 0.00 0.00 62 1017.6
20260904081003 87 303 4.0 12.0 0.00 0.00 0.00 62 1017.6
20260904080903 87 304 4.0 12.0 0.00 0.00 0.00 62 1017.5
20260904080803 87 302 4.0 13.0 0.00 0.00 0.00 62 1017.5
20260904080703 87 303 5.0 13.0 0.00 0.00 0.00 62 1017.6
20260904080603 87 303 5.0 13.0 0.00 0.00 0.00 62 1017.6
20260904080503 87 303 5.0 13.0 0.00 0.00 0.00 62 1017.5
20260904080403 87 300 4.0 13.0 0.00 0.00 0.00 62 1017.5
20260904080303 87 301 4.0 13.0 0.00 0.00 0.00 63 1017.6
20260904080203 87 300 4.0 13.0 0.00 0.00 0.00 63 1017.5
20260904080003 87 300 5.0 13.0 0.00 0.00 0.00 62 1017.6
20260904075903 87 298 5.0 13.0 0.00 0.00 0.00 62 1017.6
20260904075803 87 298 4.0 11.0 0.00 0.00 0.00 62 1017.6
20260904075703 87 298 4.0 11.0 0.00 0.00 0.00 62 1017.6
20260904075603 87 298 4.0 11.0 0.00 0.00 0.00 62 1017.6
20260904075503 87 297 4.0 11.0 0.00 0.00 0.00 62 1017.6
20260904075403 87 298 5.0 11.0 0.00 0.00 0.00 62 1017.6
20260904075306 87 297 5.0 11.0 0.00 0.00 0.00 62 1017.6
20260904075203 87 299 5.0 11.0 0.00 0.00 0.00 62 1017.5
20260904075103 87 298 5.0 11.0 0.00 0.00 0.00 62 1017.5
20260904075003 87 300 4.0 9.0 0.00 0.00 0.00 63 1017.5
20260904074903 87 301 4.0 9.0 0.00 0.00 0.00 63 1017.5
20260904074803 87 300 4.0 9.0 0.00 0.00 0.00 63 1017.5
20260904074703 87 301 4.0 10.0 0.00 0.00 0.00 63 1017.5
20260904074603 87 302 4.0 10.0 0.00 0.00 0.00 63 1017.5
20260904074503 87 303 3.0 10.0 0.00 0.00 0.00 63 1017.4
20260904074403 87 302 3.0 10.0 0.00 0.00 0.00 63 1017.5
20260904074303 87 300 3.0 10.0 0.00 0.00 0.00 63 1017.5
20260904074203 87 298 3.0 10.0 0.00 0.00 0.00 63 1017.5
20260904074103 87 298 3.0 10.0 0.00 0.00 0.00 63 1017.4
20260904074003 87 297 3.0 10.0 0.00 0.00 0.00 63 1017.4
20260904073903 87 296 3.0 12.0 0.00 0.00 0.00 63 1017.3
20260904073803 87 297 3.0 12.0 0.00 0.00 0.00 63 1017.3
20260904073703 87 295 3.0 12.0 0.00 0.00 0.00 63 1017.3
20260904073603 87 294 3.0 12.0 0.00 0.00 0.00 63 1017.2
20260904073503 87 294 3.0 12.0 0.00 0.00 0.00 63 1017.3
20260904073403 87 295 4.0 12.0 0.00 0.00 0.00 63 1017.3
20260904073303 87 296 4.0 12.0 0.00 0.00 0.00 63 1017.3
20260904073203 87 300 4.0 12.0 0.00 0.00 0.00 63 1017.2
20260904073103 87 300 4.0 12.0 0.00 0.00 0.00 63 1017.2
20260904073003 87 301 4.0 12.0 0.00 0.00 0.00 63 1017.2
20260904072903 87 302 4.0 11.0 0.00 0.00 0.00 63 1017.2
20260904072803 87 304 4.0 11.0 0.00 0.00 0.00 63 1017.2
20260904072703 87 305 4.0 11.0 0.00 0.00 0.00 63 1017.2
20260904072603 87 304 4.0 11.0 0.00 0.00 0.00 63 1017.1
20260904072503 87 304 4.0 11.0 0.00 0.00 0.00 63 1017.1
20260904072403 87 303 4.0 11.0 0.00 0.00 0.00 63 1017.1
20260904072305 87 303 4.0 11.0 0.00 0.00 0.00 63 1017.1
20260904072203 87 299 4.0 10.0 0.00 0.00 0.00 63 1017.1
20260904072103 87 298 4.0 9.0 0.00 0.00 0.00 63 1017.1
20260904072003 87 296 4.0 10.0 0.00 0.00 0.00 63 1017.1
20260904071903 87 295 4.0 10.0 0.00 0.00 0.00 64 1017.0
20260904071803 87 292 3.0 10.0 0.00 0.00 0.00 64 1016.9
20260904071703 87 292 3.0 10.0 0.00 0.00 0.00 64 1017.0
20260904071603 87 292 3.0 12.0 0.00 0.00 0.00 64 1016.9
20260904071503 87 295 4.0 12.0 0.00 0.00 0.00 64 1016.9
20260904071403 87 295 4.0 12.0 0.00 0.00 0.00 64 1017.0
20260904071303 87 295 4.0 12.0 0.00 0.00 0.00 64 1017.0
20260904071203 87 296 4.0 12.0 0.00 0.00 0.00 64 1017.0
20260904071103 87 297 4.0 12.0 0.00 0.00 0.00 64 1017.0
20260904071003 87 298 4.0 12.0 0.00 0.00 0.00 64 1017.0
20260904070903 87 298 4.0 12.0 0.00 0.00 0.00 64 1017.1
20260904070803 87 298 4.0 12.0 0.00 0.00 0.00 64 1017.1
20260904070703 87 298 4.0 12.0 0.00 0.00 0.00 64 1017.1
20260904070603 87 298 4.0 12.0 0.00 0.00 0.00 64 1017.1
20260904070503 87 296 4.0 11.0 0.00 0.00 0.00 64 1017.1
20260904070403 87 295 3.0 11.0 0.00 0.00 0.00 64 1017.1
20260904070303 87 297 3.0 11.0 0.00 0.00 0.00 64 1017.2
20260904070203 87 295 3.0 7.0 0.00 0.00 0.00 64 1017.1
20260904070003 87 294 3.0 7.0 0.00 0.00 0.00 64 1017.0
20260904065903 87 295 3.0 7.0 0.00 0.00 0.00 64 1017.0
20260904065804 87 295 3.0 7.0 0.00 0.00 0.00 65 1017.1
20260904065704 87 295 3.0 7.0 0.00 0.00 0.00 65 1017.1
20260904065604 87 296 4.0 10.0 0.00 0.00 0.00 65 1017.1
20260904065504 87 296 3.0 10.0 0.00 0.00 0.00 65 1017.1
20260904065404 87 296 4.0 10.0 0.00 0.00 0.00 65 1017.0
20260904065306 87 295 4.0 10.0 0.00 0.00 0.00 65 1017.0
20260904065204 86 294 4.0 10.0 0.00 0.00 0.00 65 1016.9
20260904065104 87 294 4.0 10.0 0.00 0.00 0.00 65 1017.1
20260904065004 86 295 4.0 11.0 0.00 0.00 0.00 65 1017.0
20260904064904 86 296 4.0 11.0 0.00 0.00 0.00 65 1017.0
20260904064804 86 295 4.0 11.0 0.00 0.00 0.00 65 1017.1
20260904064704 86 295 4.0 11.0 0.00 0.00 0.00 65 1017.1
20260904064604 86 294 4.0 11.0 0.00 0.00 0.00 66 1017.0
20260904064504 86 294 3.0 11.0 0.00 0.00 0.00 66 1016.9
20260904064404 86 295 3.0 11.0 0.00 0.00 0.00 66 1017.0
20260904064304 86 296 3.0 11.0 0.00 0.00 0.00 66 1017.0
20260904064204 86 298 3.0 11.0 0.00 0.00 0.00 66 1016.9
20260904064104 86 298 3.0 11.0 0.00 0.00 0.00 67 1016.9
20260904064004 86 298 3.0 9.0 0.00 0.00 0.00 67 1017.0
20260904063904 86 296 3.0 9.0 0.00 0.00 0.00 67 1017.1
20260904063804 86 296 4.0 9.0 0.00 0.00 0.00 67 1017.1
20260904063704 86 297 4.0 9.0 0.00 0.00 0.00 67 1017.1
20260904063604 86 297 4.0 9.0 0.00 0.00 0.00 67 1017.1
20260904063504 86 297 4.0 9.0 0.00 0.00 0.00 67 1017.2
20260904063404 86 296 4.0 9.0 0.00 0.00 0.00 68 1017.2
20260904063304 85 296 3.0 9.0 0.00 0.00 0.00 67 1017.1
20260904063204 85 298 3.0 10.0 0.00 0.00 0.00 67 1017.2
20260904063104 85 297 3.0 10.0 0.00 0.00 0.00 68 1017.2
20260904063004 85 298 3.0 10.0 0.00 0.00 0.00 68 1017.3
20260904062904 85 299 3.0 10.0 0.00 0.00 0.00 68 1017.2
20260904062804 85 300 3.0 10.0 0.00 0.00 0.00 69 1017.1
20260904062704 85 300 2.0 10.0 0.00 0.00 0.00 69 1017.2
20260904062604 84 302 2.0 10.0 0.00 0.00 0.00 69 1017.2
20260904062504 84 301 2.0 10.0 0.00 0.00 0.00 69 1017.2
20260904062404 84 303 2.0 10.0 0.00 0.00 0.00 70 1017.1
20260904062306 84 303 2.0 10.0 0.00 0.00 0.00 70 1017.2
20260904062204 84 302 2.0 10.0 0.00 0.00 0.00 70 1017.2
20260904062104 84 302 2.0 10.0 0.00 0.00 0.00 70 1017.2
20260904062004 84 302 2.0 10.0 0.00 0.00 0.00 71 1017.2
20260904061904 83 300 2.0 10.0 0.00 0.00 0.00 71 1017.3
20260904061803 83 300 3.0 10.0 0.00 0.00 0.00 71 1017.1
20260904061704 83 298 3.0 10.0 0.00 0.00 0.00 71 1017.2
20260904061603 83 297 3.0 10.0 0.00 0.00 0.00 71 1017.1
20260904061504 83 297 3.0 10.0 0.00 0.00 0.00 71 1017.0
20260904061404 83 297 4.0 10.0 0.00 0.00 0.00 71 1017.0
20260904061303 83 297 4.0 10.0 0.00 0.00 0.00 71 1017.1
20260904061203 83 296 4.0 8.0 0.00 0.00 0.00 72 1017.0
20260904061103 83 296 4.0 8.0 0.00 0.00 0.00 72 1016.9
20260904061003 82 296 4.0 8.0 0.00 0.00 0.00 72 1016.9
20260904060903 82 296 4.0 8.0 0.00 0.00 0.00 72 1016.9
20260904060803 82 295 3.0 8.0 0.00 0.00 0.00 72 1017.0
20260904060703 82 296 3.0 8.0 0.00 0.00 0.00 73 1017.0
20260904060604 82 298 3.0 8.0 0.00 0.00 0.00 73 1017.1
20260904060503 82 300 3.0 8.0 0.00 0.00 0.00 73 1017.0
20260904060403 82 300 3.0 8.0 0.00 0.00 0.00 73 1017.0
20260904060303 81 300 3.0 8.0 0.00 0.00 0.00 73 1017.0
20260904060203 81 299 3.0 8.0 0.00 0.00 0.00 73 1017.0
20260904060103 81 298 3.0 8.0 0.00 0.00 0.00 73 1017.0
20260904060003 81 297 3.0 8.0 0.00 0.00 0.00 73 1016.9
20260904055903 81 297 3.0 8.0 0.00 0.00 0.00 73 1016.9
20260904055803 81 297 3.0 8.0 0.00 0.00 0.00 73 1016.9
20260904055703 81 298 3.0 8.0 0.00 0.00 0.00 73 1016.9
20260904055603 81 297 3.0 8.0 0.00 0.00 0.00 73 1016.9
20260904055503 81 296 2.0 7.0 0.00 0.00 0.00 73 1016.9
20260904055403 81 296 3.0 7.0 0.00 0.00 0.00 73 1016.9
20260904055306 81 296 3.0 7.0 0.00 0.00 0.00 73 1016.9
20260904055203 81 297 3.0 11.0 0.00 0.00 0.00 73 1016.9
20260904055103 81 297 3.0 11.0 0.00 0.00 0.00 73 1016.9
20260904055003 81 298 3.0 11.0 0.00 0.00 0.00 73 1016.9
20260904054903 81 298 3.0 11.0 0.00 0.00 0.00 73 1016.9
20260904054803 81 298 3.0 11.0 0.00 0.00 0.00 73 1017.0
20260904054703 81 297 2.0 11.0 0.00 0.00 0.00 73 1016.9
20260904054603 81 297 2.0 11.0 0.00 0.00 0.00 73 1016.9
20260904054503 81 297 2.0 11.0 0.00 0.00 0.00 73 1017.0
20260904054403 81 298 2.0 11.0 0.00 0.00 0.00 73 1017.0
20260904054303 81 300 2.0 11.0 0.00 0.00 0.00 73 1017.0
20260904054203 81 298 1.0 5.0 0.00 0.00 0.00 74 1017.0
20260904054103 81 299 1.0 5.0 0.00 0.00 0.00 73 1017.0
20260904054003 81 298 1.0 6.0 0.00 0.00 0.00 74 1017.0
20260904053903 81 297 2.0 6.0 0.00 0.00 0.00 73 1017.0
20260904053803 81 298 2.0 6.0 0.00 0.00 0.00 74 1017.0
20260904053703 81 297 2.0 6.0 0.00 0.00 0.00 74 1017.2
20260904053603 81 295 2.0 6.0 0.00 0.00 0.00 74 1016.9
20260904053503 81 294 2.0 6.0 0.00 0.00 0.00 74 1017.0
20260904053403 81 292 2.0 6.0 0.00 0.00 0.00 74 1017.2
20260904053303 81 291 2.0 6.0 0.00 0.00 0.00 74 1017.0
20260904053203 81 291 2.0 6.0 0.00 0.00 0.00 74 1017.2
20260904053103 81 291 2.0 6.0 0.00 0.00 0.00 74 1017.2
20260904053003 81 291 2.0 6.0 0.00 0.00 0.00 74 1017.1
20260904052903 81 291 2.0 6.0 0.00 0.00 0.00 74 1017.0
20260904052803 80 290 2.0 6.0 0.00 0.00 0.00 74 1017.2
20260904052703 81 290 2.0 6.0 0.00 0.00 0.00 74 1017.1
20260904052603 80 294 2.0 6.0 0.00 0.00 0.00 74 1017.2
20260904052503 80 294 2.0 6.0 0.00 0.00 0.00 74 1017.2
20260904052403 80 296 2.0 7.0 0.00 0.00 0.00 74 1017.2
20260904052306 80 299 2.0 7.0 0.00 0.00 0.00 74 1017.2
20260904052203 80 300 2.0 7.0 0.00 0.00 0.00 74 1017.1
20260904052103 80 300 2.0 7.0 0.00 0.00 0.00 74 1017.1
20260904052003 80 302 2.0 7.0 0.00 0.00 0.00 74 1017.1
20260904051903 80 303 2.0 7.0 0.00 0.00 0.00 74 1017.0
20260904051803 80 303 3.0 7.0 0.00 0.00 0.00 74 1017.1
20260904051703 80 303 3.0 7.0 0.00 0.00 0.00 74 1017.0
20260904051603 80 301 3.0 7.0 0.00 0.00 0.00 74 1017.0
20260904051503 80 300 3.0 7.0 0.00 0.00 0.00 74 1017.0
20260904051403 80 299 3.0 7.0 0.00 0.00 0.00 74 1017.0
20260904051303 80 297 3.0 7.0 0.00 0.00 0.00 74 1017.0
20260904051203 80 296 3.0 7.0 0.00 0.00 0.00 74 1017.0
20260904051103 80 296 2.0 7.0 0.00 0.00 0.00 74 1017.0
20260904051003 80 296 2.0 7.0 0.00 0.00 0.00 74 1017.0
20260904050903 80 294 2.0 7.0 0.00 0.00 0.00 74 1016.9
20260904050803 80 293 2.0 7.0 0.00 0.00 0.00 74 1016.9
20260904050703 80 293 2.0 7.0 0.00 0.00 0.00 74 1016.9
20260904050603 80 292 2.0 7.0 0.00 0.00 0.00 74 1016.9
20260904050503 80 292 2.0 7.0 0.00 0.00 0.00 74 1016.8
20260904050403 80 292 2.0 7.0 0.00 0.00 0.00 74 1016.8
20260904050303 80 292 2.0 7.0 0.00 0.00 0.00 74 1016.7
20260904050203 80 291 2.0 7.0 0.00 0.00 0.00 75 1016.8
20260904050003 80 291 2.0 7.0 0.00 0.00 0.00 75 1016.7
20260904045903 80 292 3.0 8.0 0.00 0.00 0.00 75 1016.7
20260904045803 80 293 3.0 8.0 0.00 0.00 0.00 75 1016.7
20260904045703 80 292 3.0 8.0 0.00 0.00 0.00 75 1016.6
20260904045603 80 293 3.0 8.0 0.00 0.00 0.00 75 1016.5
20260904045503 80 293 3.0 8.0 0.00 0.00 0.00 75 1016.5
20260904045403 80 293 2.0 8.0 0.00 0.00 0.00 75 1016.6
20260904045306 80 293 2.0 8.0 0.00 0.00 0.00 74 1016.5
20260904045203 80 293 2.0 8.0 0.00 0.00 0.00 74 1016.6
20260904045103 80 295 2.0 8.0 0.00 0.00 0.00 75 1016.6
20260904045003 80 295 2.0 8.0 0.00 0.00 0.00 75 1016.6
20260904044904 80 296 1.0 7.0 0.00 0.00 0.00 74 1016.6
20260904044804 80 301 1.0 7.0 0.00 0.00 0.00 74 1016.5
20260904044704 80 300 1.0 7.0 0.00 0.00 0.00 75 1016.5
20260904044604 80 300 1.0 6.0 0.00 0.00 0.00 74 1016.5
20260904044504 80 302 1.0 6.0 0.00 0.00 0.00 75 1016.5
20260904044404 80 301 2.0 6.0 0.00 0.00 0.00 75 1016.5
20260904044304 80 301 2.0 6.0 0.00 0.00 0.00 74 1016.5
20260904044204 80 303 1.0 6.0 0.00 0.00 0.00 75 1016.5
20260904044104 80 301 1.0 6.0 0.00 0.00 0.00 74 1016.5
20260904044004 80 302 1.0 6.0 0.00 0.00 0.00 74 1016.6
20260904043904 80 302 1.0 6.0 0.00 0.00 0.00 75 1016.5
20260904043804 80 297 1.0 6.0 0.00 0.00 0.00 74 1016.5
20260904043704 80 297 1.0 6.0 0.00 0.00 0.00 74 1016.5
20260904043604 80 299 1.0 6.0 0.00 0.00 0.00 74 1016.5
20260904043504 80 299 1.0 7.0 0.00 0.00 0.00 74 1016.5
20260904043404 80 301 1.0 7.0 0.00 0.00 0.00 74 1016.5
20260904043304 80 297 1.0 8.0 0.00 0.00 0.00 74 1016.4
20260904043204 80 296 1.0 8.0 0.00 0.00 0.00 75 1016.4
20260904043104 80 296 2.0 8.0 0.00 0.00 0.00 75 1016.4
20260904043004 80 296 2.0 9.0 0.00 0.00 0.00 75 1016.4
20260904042904 80 296 2.0 9.0 0.00 0.00 0.00 75 1016.5
20260904042804 80 296 3.0 9.0 0.00 0.00 0.00 75 1016.5
20260904042704 80 296 3.0 9.0 0.00 0.00 0.00 75 1016.5
20260904042604 80 297 3.0 9.0 0.00 0.00 0.00 75 1016.6
20260904042504 80 296 2.0 9.0 0.00 0.00 0.00 74 1016.6
20260904042404 80 300 2.0 9.0 0.00 0.00 0.00 75 1016.5
20260904042306 80 303 2.0 9.0 0.00 0.00 0.00 75 1016.6
20260904042204 80 304 2.0 9.0 0.00 0.00 0.00 75 1016.7
20260904042104 80 307 2.0 9.0 0.00 0.00 0.00 75 1016.6
20260904042004 80 310 2.0 7.0 0.00 0.00 0.00 75 1016.6
20260904041904 80 311 1.0 7.0 0.00 0.00 0.00 75 1016.6
20260904041804 80 312 1.0 7.0 0.00 0.00 0.00 75 1016.6
20260904041704 80 308 2.0 7.0 0.00 0.00 0.00 75 1016.6
20260904041604 80 305 2.0 7.0 0.00 0.00 0.00 75 1016.6
20260904041504 80 303 2.0 7.0 0.00 0.00 0.00 75 1016.7
20260904041404 80 298 2.0 6.0 0.00 0.00 0.00 75 1016.7
20260904041304 80 295 2.0 6.0 0.00 0.00 0.00 75 1016.6
20260904041204 80 296 2.0 6.0 0.00 0.00 0.00 75 1016.5
20260904041104 80 295 2.0 6.0 0.00 0.00 0.00 75 1016.6
20260904041003 80 295 2.0 6.0 0.00 0.00 0.00 75 1016.5
20260904040904 80 296 2.0 6.0 0.00 0.00 0.00 75 1016.5
20260904040803 80 296 2.0 8.0 0.00 0.00 0.00 75 1016.5
20260904040703 80 296 2.0 8.0 0.00 0.00 0.00 75 1016.5
20260904040604 80 295 3.0 9.0 0.00 0.00 0.00 75 1016.5
20260904040503 80 294 3.0 9.0 0.00 0.00 0.00 74 1016.5
20260904040403 80 295 3.0 9.0 0.00 0.00 0.00 74 1016.5
20260904040303 80 296 3.0 9.0 0.00 0.00 0.00 74 1016.5
20260904040203 80 295 3.0 9.0 0.00 0.00 0.00 74 1016.4
20260904040103 80 295 2.0 9.0 0.00 0.00 0.00 74 1016.5
20260904040004 80 295 2.0 9.0 0.00 0.00 0.00 74 1016.5
20260904035903 80 294 2.0 9.0 0.00 0.00 0.00 74 1016.5
20260904035803 80 294 2.0 9.0 0.00 0.00 0.00 74 1016.5
20260904035703 80 297 2.0 9.0 0.00 0.00 0.00 74 1016.5
20260904035603 80 299 2.0 8.0 0.00 0.00 0.00 74 1016.5
20260904035503 80 301 2.0 8.0 0.00 0.00 0.00 74 1016.5
20260904035404 80 301 1.0 7.0 0.00 0.00 0.00 74 1016.5
20260904035306 80 302 1.0 7.0 0.00 0.00 0.00 74 1016.4
20260904035203 80 302 1.0 7.0 0.00 0.00 0.00 74 1016.5
20260904035103 80 304 1.0 7.0 0.00 0.00 0.00 74 1016.5
20260904035003 80 304 2.0 7.0 0.00 0.00 0.00 74 1016.5
20260904034903 80 304 1.0 7.0 0.00 0.00 0.00 74 1016.5
20260904034803 80 304 1.0 7.0 0.00 0.00 0.00 74 1016.6
20260904034703 80 300 1.0 7.0 0.00 0.00 0.00 74 1016.5
20260904034604 80 299 1.0 7.0 0.00 0.00 0.00 74 1016.4
20260904034503 80 299 1.0 7.0 0.00 0.00 0.00 74 1016.5
20260904034403 80 300 1.0 7.0 0.00 0.00 0.00 74 1016.5
20260904034303 80 298 1.0 7.0 0.00 0.00 0.00 74 1016.5
20260904034203 80 298 2.0 7.0 0.00 0.00 0.00 74 1016.5
20260904034103 80 296 2.0 7.0 0.00 0.00 0.00 74 1016.5
20260904034003 80 295 2.0 7.0 0.00 0.00 0.00 74 1016.5
20260904033903 80 295 2.0 10.0 0.00 0.00 0.00 74 1016.6
20260904033803 80 295 2.0 10.0 0.00 0.00 0.00 74 1016.5
20260904033703 80 296 2.0 10.0 0.00 0.00 0.00 74 1016.5
20260904033603 80 297 2.0 10.0 0.00 0.00 0.00 74 1016.4
20260904033503 80 296 2.0 10.0 0.00 0.00 0.00 74 1016.5
20260904033403 80 296 2.0 10.0 0.00 0.00 0.00 74 1016.5
20260904033303 80 297 2.0 10.0 0.00 0.00 0.00 74 1016.5
20260904033203 80 296 2.0 10.0 0.00 0.00 0.00 74 1016.5
20260904033103 80 297 2.0 10.0 0.00 0.00 0.00 74 1016.5
20260904033003 80 298 1.0 10.0 0.00 0.00 0.00 74 1016.5
20260904032903 80 299 1.0 6.0 0.00 0.00 0.00 74 1016.5
20260904032803 80 299 1.0 6.0 0.00 0.00 0.00 74 1016.5
20260904032703 80 300 1.0 6.0 0.00 0.00 0.00 74 1016.5
20260904032603 80 300 1.0 6.0 0.00 0.00 0.00 74 1016.5
20260904032503 80 301 1.0 6.0 0.00 0.00 0.00 74 1016.4
20260904032403 80 299 1.0 6.0 0.00 0.00 0.00 74 1016.5
20260904032305 80 299 1.0 6.0 0.00 0.00 0.00 74 1016.5
20260904032203 80 301 1.0 6.0 0.00 0.00 0.00 74 1016.4
20260904032103 80 301 2.0 6.0 0.00 0.00 0.00 74 1016.5
20260904032003 80 301 1.0 6.0 0.00 0.00 0.00 74 1016.4
20260904031903 80 302 1.0 6.0 0.00 0.00 0.00 74 1016.4
20260904031803 80 302 1.0 6.0 0.00 0.00 0.00 74 1016.5
20260904031703 80 301 2.0 7.0 0.00 0.00 0.00 74 1016.5
20260904031603 80 299 2.0 7.0 0.00 0.00 0.00 74 1016.5
20260904031503 80 298 2.0 7.0 0.00 0.00 0.00 74 1016.4
20260904031403 80 298 2.0 7.0 0.00 0.00 0.00 74 1016.4
20260904031303 80 298 2.0 7.0 0.00 0.00 0.00 74 1016.5
20260904031203 80 297 2.0 7.0 0.00 0.00 0.00 74 1016.4
20260904031103 80 298 2.0 7.0 0.00 0.00 0.00 73 1016.5
20260904031003 80 298 3.0 7.0 0.00 0.00 0.00 74 1016.5
20260904030903 80 298 3.0 7.0 0.00 0.00 0.00 74 1016.5
20260904030803 80 299 3.0 7.0 0.00 0.00 0.00 74 1016.5
20260904030703 80 300 3.0 7.0 0.00 0.00 0.00 74 1016.5
20260904030603 80 301 2.0 7.0 0.00 0.00 0.00 74 1016.6
20260904030503 80 301 2.0 7.0 0.00 0.00 0.00 73 1016.6
20260904030403 80 302 2.0 7.0 0.00 0.00 0.00 73 1016.5
20260904030303 80 302 2.0 7.0 0.00 0.00 0.00 73 1016.6
20260904030203 80 303 2.0 7.0 0.00 0.00 0.00 73 1016.5
20260904030103 81 302 1.0 7.0 0.00 0.00 0.00 73 1016.6
20260904030003 81 302 1.0 7.0 0.00 0.00 0.00 73 1016.6
20260904025903 81 302 1.0 7.0 0.00 0.00 0.00 73 1016.6
20260904025803 81 302 1.0 7.0 0.00 0.00 0.00 73 1016.5
20260904025703 81 299 1.0 7.0 0.00 0.00 0.00 73 1016.6
20260904025603 81 295 1.0 6.0 0.00 0.00 0.00 73 1016.6
20260904025503 81 296 1.0 6.0 0.00 0.00 0.00 73 1016.6
20260904025403 80 298 1.0 6.0 0.00 0.00 0.00 73 1016.6
20260904025306 80 298 1.0 6.0 0.00 0.00 0.00 73 1016.5
20260904025203 80 298 1.0 6.0 0.00 0.00 0.00 73 1016.6
20260904025103 80 299 1.0 6.0 0.00 0.00 0.00 73 1016.5
20260904025003 80 299 1.0 6.0 0.00 0.00 0.00 73 1016.5
20260904024903 80 296 2.0 6.0 0.00 0.00 0.00 73 1016.5
20260904024803 80 295 2.0 6.0 0.00 0.00 0.00 73 1016.5
20260904024703 80 295 2.0 6.0 0.00 0.00 0.00 73 1016.5
20260904024603 81 294 2.0 6.0 0.00 0.00 0.00 73 1016.6
20260904024503 81 294 2.0 6.0 0.00 0.00 0.00 73 1016.5
20260904024403 80 293 2.0 7.0 0.00 0.00 0.00 73 1016.6
20260904024303 81 292 2.0 7.0 0.00 0.00 0.00 73 1016.6
20260904024203 81 291 2.0 7.0 0.00 0.00 0.00 73 1016.5
20260904024103 81 290 2.0 7.0 0.00 0.00 0.00 73 1016.5
20260904024003 81 290 2.0 7.0 0.00 0.00 0.00 73 1016.5
20260904023903 81 290 2.0 7.0 0.00 0.00 0.00 73 1016.5
20260904023803 81 290 2.0 7.0 0.00 0.00 0.00 73 1016.6
20260904023703 81 290 2.0 7.0 0.00 0.00 0.00 73 1016.6
20260904023603 81 291 2.0 7.0 0.00 0.00 0.00 73 1016.6
20260904023504 81 291 2.0 7.0 0.00 0.00 0.00 73 1016.5
20260904023403 81 291 2.0 6.0 0.00 0.00 0.00 73 1016.5
20260904023303 81 291 2.0 6.0 0.00 0.00 0.00 73 1016.4
20260904023203 81 292 2.0 6.0 0.00 0.00 0.00 73 1016.5
20260904023103 81 293 2.0 6.0 0.00 0.00 0.00 73 1016.5
20260904023003 81 294 2.0 7.0 0.00 0.00 0.00 73 1016.5
20260904022903 81 292 2.0 7.0 0.00 0.00 0.00 73 1016.5